Wetterdaten: Freitag, 28.11.2014
Datum Zeit Temp. Aussen +5cm Feuchte Auss Luftdruck Regen Sonnenschein Regendauer Solar Windben
28.11.2014 00:00 5,5 C 3,9 C 94 % 1006,9 hPa 0,0 l/m 0 min 0 min 0 W/m 23,0 km/h (4 Bft)
28.11.2014 00:02 5,5 C 3,9 C 94 % 1007,0 hPa 0,0 l/m 0 min 0 min 0 W/m 29,3 km/h (5 Bft)
28.11.2014 00:05 5,5 C 3,9 C 94 % 1007,0 hPa 0,0 l/m 0 min 0 min 0 W/m 31,4 km/h (5 Bft)
28.11.2014 00:08 5,5 C 3,9 C 94 % 1007,1 hPa 0,0 l/m 0 min 0 min 0 W/m 31,4 km/h (5 Bft)
28.11.2014 00:10 5,5 C 3,9 C 94 % 1007,1 hPa 0,0 l/m 0 min 0 min 0 W/m 31,4 km/h (5 Bft)
28.11.2014 00:12 5,6 C 3,9 C 94 % 1007,1 hPa 0,0 l/m 0 min 0 min 0 W/m 23,0 km/h (4 Bft)
28.11.2014 00:14 5,6 C 3,9 C 94 % 1007,0 hPa 0,0 l/m 0 min 0 min 0 W/m 18,8 km/h (3 Bft)
28.11.2014 00:16 5,6 C 3,9 C 94 % 1007,0 hPa 0,0 l/m 0 min 0 min 0 W/m 25,1 km/h (4 Bft)
28.11.2014 00:18 5,6 C 3,9 C 94 % 1007,0 hPa 0,0 l/m 0 min 0 min 0 W/m 27,2 km/h (4 Bft)
28.11.2014 00:20 5,6 C 3,9 C 94 % 1007,1 hPa 0,0 l/m 0 min 0 min 0 W/m 33,5 km/h (5 Bft)
28.11.2014 00:22 5,6 C 3,9 C 94 % 1007,1 hPa 0,0 l/m 0 min 0 min 0 W/m 37,7 km/h (5 Bft)
28.11.2014 00:24 5,6 C 3,9 C 94 % 1007,0 hPa 0,0 l/m 0 min 0 min 0 W/m 31,4 km/h (5 Bft)
28.11.2014 00:26 5,6 C 3,9 C 94 % 1007,0 hPa 0,0 l/m 0 min 0 min 0 W/m 41,8 km/h (6 Bft)
28.11.2014 00:28 5,6 C 3,9 C 94 % 1007,1 hPa 0,0 l/m 0 min 0 min 0 W/m 27,2 km/h (4 Bft)
28.11.2014 00:30 5,6 C 3,9 C 94 % 1007,0 hPa 0,0 l/m 0 min 0 min 0 W/m 25,1 km/h (4 Bft)
28.11.2014 00:32 5,7 C 3,9 C 94 % 1007,0 hPa 0,0 l/m 0 min 0 min 0 W/m 29,3 km/h (5 Bft)
28.11.2014 00:34 5,7 C 3,9 C 94 % 1007,0 hPa 0,0 l/m 0 min 0 min 0 W/m 31,4 km/h (5 Bft)
28.11.2014 00:36 5,7 C 3,9 C 94 % 1007,0 hPa 0,0 l/m 0 min 0 min 0 W/m 25,1 km/h (4 Bft)
28.11.2014 00:38 5,7 C 3,9 C 94 % 1007,0 hPa 0,0 l/m 0 min 0 min 0 W/m 29,3 km/h (5 Bft)
28.11.2014 00:40 5,7 C 3,9 C 94 % 1007,0 hPa 0,0 l/m 0 min 0 min 0 W/m 31,4 km/h (5 Bft)
28.11.2014 00:42 5,8 C 4,4 C 94 % 1007,0 hPa 0,0 l/m 0 min 0 min 0 W/m 35,6 km/h (5 Bft)
28.11.2014 00:44 5,8 C 4,4 C 94 % 1007,0 hPa 0,0 l/m 0 min 0 min 0 W/m 33,5 km/h (5 Bft)
28.11.2014 00:46 5,8 C 4,4 C 94 % 1007,0 hPa 0,0 l/m 0 min 0 min 0 W/m 25,1 km/h (4 Bft)
28.11.2014 00:48 5,8 C 4,4 C 94 % 1006,9 hPa 0,0 l/m 0 min 0 min 0 W/m 20,9 km/h (4 Bft)
28.11.2014 00:50 5,8 C 4,4 C 94 % 1006,9 hPa 0,0 l/m 0 min 0 min 0 W/m 33,5 km/h (5 Bft)
28.11.2014 00:52 5,8 C 4,4 C 94 % 1007,0 hPa 0,0 l/m 0 min 0 min 0 W/m 29,3 km/h (5 Bft)
28.11.2014 00:54 5,8 C 4,4 C 94 % 1007,0 hPa 0,0 l/m 0 min 0 min 0 W/m 25,1 km/h (4 Bft)
28.11.2014 00:56 5,8 C 4,4 C 94 % 1007,0 hPa 0,0 l/m 0 min 0 min 0 W/m 29,3 km/h (5 Bft)
28.11.2014 00:58 5,8 C 4,4 C 94 % 1007,2 hPa 0,0 l/m 0 min 0 min 0 W/m 25,1 km/h (4 Bft)
28.11.2014 01:00 5,8 C 4,4 C 94 % 1007,1 hPa 0,0 l/m 0 min 0 min 0 W/m 27,2 km/h (4 Bft)
28.11.2014 01:02 5,9 C 4,4 C 94 % 1007,1 hPa 0,0 l/m 0 min 0 min 0 W/m 31,4 km/h (5 Bft)
28.11.2014 01:04 5,9 C 4,4 C 94 % 1007,0 hPa 0,0 l/m 0 min 0 min 0 W/m 27,2 km/h (4 Bft)
28.11.2014 01:06 5,9 C 4,4 C 94 % 1007,1 hPa 0,0 l/m 0 min 0 min 0 W/m 35,6 km/h (5 Bft)
28.11.2014 01:08 5,9 C 4,4 C 94 % 1007,1 hPa 0,0 l/m 0 min 0 min 0 W/m 33,5 km/h (5 Bft)
28.11.2014 01:10 5,9 C 4,4 C 93 % 1007,1 hPa 0,0 l/m 0 min 0 min 0 W/m 25,1 km/h (4 Bft)
28.11.2014 01:12 5,9 C 4,4 C 93 % 1007,1 hPa 0,0 l/m 0 min 0 min 0 W/m 25,1 km/h (4 Bft)
28.11.2014 01:14 5,9 C 4,4 C 93 % 1007,1 hPa 0,0 l/m 0 min 0 min 0 W/m 31,4 km/h (5 Bft)
28.11.2014 01:16 5,9 C 4,4 C 93 % 1007,1 hPa 0,0 l/m 0 min 0 min 0 W/m 29,3 km/h (5 Bft)
28.11.2014 01:18 5,9 C 4,4 C 93 % 1007,0 hPa 0,0 l/m 0 min 0 min 0 W/m 23,0 km/h (4 Bft)
28.11.2014 01:20 5,9 C 4,4 C 93 % 1007,0 hPa 0,0 l/m 0 min 0 min 0 W/m 23,0 km/h (4 Bft)
28.11.2014 01:22 5,9 C 4,4 C 93 % 1007,1 hPa 0,0 l/m 0 min 0 min 0 W/m 27,2 km/h (4 Bft)
28.11.2014 01:24 5,9 C 4,4 C 93 % 1007,1 hPa 0,0 l/m 0 min 0 min 0 W/m 23,0 km/h (4 Bft)
28.11.2014 01:26 5,9 C 4,4 C 93 % 1007,1 hPa 0,0 l/m 0 min 0 min 0 W/m 27,2 km/h (4 Bft)
28.11.2014 01:28 5,9 C 4,4 C 93 % 1007,1 hPa 0,0 l/m 0 min 0 min 0 W/m 27,2 km/h (4 Bft)
28.11.2014 01:30 5,9 C 4,4 C 93 % 1007,1 hPa 0,0 l/m 0 min 0 min 0 W/m 35,6 km/h (5 Bft)
28.11.2014 01:32 6,0 C 4,4 C 93 % 1007,1 hPa 0,0 l/m 0 min 0 min 0 W/m 25,1 km/h (4 Bft)
28.11.2014 01:34 6,0 C 4,4 C 93 % 1007,2 hPa 0,0 l/m 0 min 0 min 0 W/m 23,0 km/h (4 Bft)
28.11.2014 01:36 6,0 C 4,4 C 93 % 1007,2 hPa 0,0 l/m 0 min 0 min 0 W/m 29,3 km/h (5 Bft)
28.11.2014 01:38 6,0 C 4,4 C 93 % 1007,1 hPa 0,0 l/m 0 min 0 min 0 W/m 31,4 km/h (5 Bft)
28.11.2014 01:40 6,0 C 4,4 C 93 % 1007,2 hPa 0,0 l/m 0 min 0 min 0 W/m 35,6 km/h (5 Bft)
28.11.2014 01:42 6,0 C 4,4 C 93 % 1007,2 hPa 0,0 l/m 0 min 0 min 0 W/m 29,3 km/h (5 Bft)
28.11.2014 01:44 6,0 C 4,4 C 93 % 1007,1 hPa 0,0 l/m 0 min 0 min 0 W/m 39,7 km/h (6 Bft)
28.11.2014 01:46 6,1 C 4,4 C 93 % 1007,1 hPa 0,0 l/m 0 min 0 min 0 W/m 25,1 km/h (4 Bft)
28.11.2014 01:48 6,1 C 4,4 C 93 % 1007,2 hPa 0,0 l/m 0 min 0 min 0 W/m 27,2 km/h (4 Bft)
28.11.2014 01:50 6,1 C 4,4 C 93 % 1007,1 hPa 0,0 l/m 0 min 0 min 0 W/m 33,5 km/h (5 Bft)
28.11.2014 01:52 6,1 C 4,4 C 93 % 1007,2 hPa 0,0 l/m 0 min 0 min 0 W/m 29,3 km/h (5 Bft)
28.11.2014 01:54 6,1 C 4,4 C 93 % 1007,1 hPa 0,0 l/m 0 min 0 min 0 W/m 20,9 km/h (4 Bft)
28.11.2014 01:56 6,1 C 4,4 C 93 % 1007,2 hPa 0,0 l/m 0 min 0 min 0 W/m 29,3 km/h (5 Bft)
28.11.2014 01:58 6,1 C 4,4 C 93 % 1007,2 hPa 0,0 l/m 0 min 0 min 0 W/m 29,3 km/h (5 Bft)
28.11.2014 02:00 6,1 C 4,4 C 93 % 1007,1 hPa 0,0 l/m 0 min 0 min 0 W/m 23,0 km/h (4 Bft)
28.11.2014 02:02 6,1 C 4,4 C 93 % 1007,1 hPa 0,0 l/m 0 min 0 min 0 W/m 18,8 km/h (3 Bft)
28.11.2014 02:04 6,1 C 4,4 C 93 % 1007,1 hPa 0,0 l/m 0 min 0 min 0 W/m 23,0 km/h (4 Bft)
28.11.2014 02:06 6,1 C 4,4 C 93 % 1007,0 hPa 0,0 l/m 0 min 0 min 0 W/m 27,2 km/h (4 Bft)
28.11.2014 02:08 6,1 C 4,4 C 93 % 1007,1 hPa 0,0 l/m 0 min 0 min 0 W/m 27,2 km/h (4 Bft)
28.11.2014 02:10 6,1 C 4,4 C 93 % 1007,1 hPa 0,0 l/m 0 min 0 min 0 W/m 23,0 km/h (4 Bft)
28.11.2014 02:12 6,1 C 4,4 C 93 % 1007,2 hPa 0,0 l/m 0 min 0 min 0 W/m 25,1 km/h (4 Bft)
28.11.2014 02:14 6,1 C 4,4 C 93 % 1007,2 hPa 0,0 l/m 0 min 0 min 0 W/m 23,0 km/h (4 Bft)
28.11.2014 02:16 6,1 C 4,4 C 93 % 1007,2 hPa 0,0 l/m 0 min 0 min 0 W/m 29,3 km/h (5 Bft)
28.11.2014 02:18 6,1 C 4,4 C 93 % 1007,1 hPa 0,0 l/m 0 min 0 min 0 W/m 27,2 km/h (4 Bft)
28.11.2014 02:20 6,1 C 4,4 C 93 % 1007,1 hPa 0,0 l/m 0 min 0 min 0 W/m 20,9 km/h (4 Bft)
28.11.2014 02:22 6,1 C 4,4 C 93 % 1007,2 hPa 0,0 l/m 0 min 0 min 0 W/m 33,5 km/h (5 Bft)
28.11.2014 02:24 6,1 C 4,4 C 93 % 1007,2 hPa 0,0 l/m 0 min 0 min 0 W/m 25,1 km/h (4 Bft)
28.11.2014 02:26 6,1 C 4,4 C 93 % 1007,2 hPa 0,0 l/m 0 min 0 min 0 W/m 27,2 km/h (4 Bft)
28.11.2014 02:28 6,1 C 4,4 C 93 % 1007,2 hPa 0,0 l/m 0 min 0 min 0 W/m 23,0 km/h (4 Bft)
28.11.2014 02:30 6,1 C 4,4 C 93 % 1007,2 hPa 0,0 l/m 0 min 0 min 0 W/m 23,0 km/h (4 Bft)
28.11.2014 02:32 6,1 C 4,4 C 93 % 1007,3 hPa 0,0 l/m 0 min 0 min 0 W/m 23,0 km/h (4 Bft)
28.11.2014 02:34 6,1 C 4,4 C 93 % 1007,3 hPa 0,0 l/m 0 min 0 min 0 W/m 27,2 km/h (4 Bft)
28.11.2014 02:36 6,1 C 4,4 C 93 % 1007,2 hPa 0,0 l/m 0 min 0 min 0 W/m 20,9 km/h (4 Bft)
28.11.2014 02:38 6,1 C 4,4 C 93 % 1007,2 hPa 0,0 l/m 0 min 0 min 0 W/m 25,1 km/h (4 Bft)
28.11.2014 02:40 6,1 C 4,4 C 93 % 1007,2 hPa 0,0 l/m 0 min 0 min 0 W/m 29,3 km/h (5 Bft)
28.11.2014 02:42 6,1 C 4,4 C 93 % 1007,2 hPa 0,0 l/m 0 min 0 min 0 W/m 18,8 km/h (3 Bft)
28.11.2014 02:44 6,1 C 4,4 C 93 % 1007,2 hPa 0,0 l/m 0 min 0 min 0 W/m 20,9 km/h (4 Bft)
28.11.2014 02:46 6,1 C 4,4 C 93 % 1007,2 hPa 0,0 l/m 0 min 0 min 0 W/m 29,3 km/h (5 Bft)
28.11.2014 02:48 6,1 C 4,4 C 93 % 1007,2 hPa 0,0 l/m 0 min 0 min 0 W/m 20,9 km/h (4 Bft)
28.11.2014 02:50 6,1 C 4,4 C 93 % 1007,1 hPa 0,0 l/m 0 min 0 min 0 W/m 25,1 km/h (4 Bft)
28.11.2014 02:52 6,1 C 4,4 C 93 % 1007,1 hPa 0,0 l/m 0 min 0 min 0 W/m 23,0 km/h (4 Bft)
28.11.2014 02:54 6,1 C 4,4 C 93 % 1007,1 hPa 0,0 l/m 0 min 0 min 0 W/m 29,3 km/h (5 Bft)
28.11.2014 02:56 6,1 C 4,4 C 93 % 1007,1 hPa 0,0 l/m 0 min 0 min 0 W/m 35,6 km/h (5 Bft)
28.11.2014 02:58 6,1 C 4,4 C 93 % 1007,2 hPa 0,0 l/m 0 min 0 min 0 W/m 23,0 km/h (4 Bft)
28.11.2014 03:00 6,1 C 4,4 C 93 % 1007,2 hPa 0,0 l/m 0 min 0 min 0 W/m 23,0 km/h (4 Bft)
28.11.2014 03:02 6,1 C 4,4 C 93 % 1007,1 hPa 0,0 l/m 0 min 0 min 0 W/m 18,8 km/h (3 Bft)
28.11.2014 03:04 6,1 C 4,4 C 93 % 1007,1 hPa 0,0 l/m 0 min 0 min 0 W/m 20,9 km/h (4 Bft)
28.11.2014 03:06 6,1 C 4,4 C 93 % 1007,2 hPa 0,0 l/m 0 min 0 min 0 W/m 25,1 km/h (4 Bft)
28.11.2014 03:08 6,1 C 4,4 C 93 % 1007,2 hPa 0,0 l/m 0 min 0 min 0 W/m 27,2 km/h (4 Bft)
28.11.2014 03:10 6,1 C 4,4 C 93 % 1007,2 hPa 0,0 l/m 0 min 0 min 0 W/m 23,0 km/h (4 Bft)
28.11.2014 03:12 6,1 C 4,4 C 93 % 1007,2 hPa 0,0 l/m 0 min 0 min 0 W/m 27,2 km/h (4 Bft)
28.11.2014 03:14 6,1 C 4,4 C 93 % 1007,2 hPa 0,0 l/m 0 min 0 min 0 W/m 29,3 km/h (5 Bft)
28.11.2014 03:16 6,1 C 4,4 C 93 % 1007,1 hPa 0,0 l/m 0 min 0 min 0 W/m 27,2 km/h (4 Bft)
28.11.2014 03:18 6,1 C 4,4 C 93 % 1007,1 hPa 0,0 l/m 0 min 0 min 0 W/m 25,1 km/h (4 Bft)
28.11.2014 03:20 6,1 C 4,4 C 93 % 1007,1 hPa 0,0 l/m 0 min 0 min 0 W/m 31,4 km/h (5 Bft)
28.11.2014 03:22 6,1 C 4,4 C 93 % 1007,1 hPa 0,0 l/m 0 min 0 min 0 W/m 20,9 km/h (4 Bft)
28.11.2014 03:24 6,1 C 4,4 C 93 % 1007,2 hPa 0,0 l/m 0 min 0 min 0 W/m 27,2 km/h (4 Bft)
28.11.2014 03:26 6,1 C 4,4 C 93 % 1007,2 hPa 0,0 l/m 0 min 0 min 0 W/m 29,3 km/h (5 Bft)
28.11.2014 03:28 6,1 C 4,4 C 93 % 1007,2 hPa 0,0 l/m 0 min 0 min 0 W/m 29,3 km/h (5 Bft)
28.11.2014 03:30 6,1 C 4,4 C 93 % 1007,2 hPa 0,0 l/m 0 min 0 min 0 W/m 25,1 km/h (4 Bft)
28.11.2014 03:32 6,1 C 4,4 C 93 % 1007,2 hPa 0,0 l/m 0 min 0 min 0 W/m 31,4 km/h (5 Bft)
28.11.2014 03:34 6,1 C 4,4 C 93 % 1007,2 hPa 0,0 l/m 0 min 0 min 0 W/m 29,3 km/h (5 Bft)
28.11.2014 03:36 6,1 C 4,4 C 93 % 1007,1 hPa 0,0 l/m 0 min 0 min 0 W/m 33,5 km/h (5 Bft)
28.11.2014 03:38 6,1 C 4,4 C 93 % 1007,2 hPa 0,0 l/m 0 min 0 min 0 W/m 29,3 km/h (5 Bft)
28.11.2014 03:40 6,1 C 4,4 C 93 % 1007,2 hPa 0,0 l/m 0 min 0 min 0 W/m 27,2 km/h (4 Bft)
28.11.2014 03:42 6,1 C 4,4 C 93 % 1007,2 hPa 0,0 l/m 0 min 0 min 0 W/m 33,5 km/h (5 Bft)
28.11.2014 03:44 6,1 C 4,4 C 93 % 1007,2 hPa 0,0 l/m 0 min 0 min 0 W/m 23,0 km/h (4 Bft)
28.11.2014 03:46 6,1 C 4,4 C 93 % 1007,1 hPa 0,0 l/m 0 min 0 min 0 W/m 25,1 km/h (4 Bft)
28.11.2014 03:48 6,1 C 4,4 C 93 % 1007,2 hPa 0,0 l/m 0 min 0 min 0 W/m 25,1 km/h (4 Bft)
28.11.2014 03:50 6,1 C 4,4 C 93 % 1007,2 hPa 0,0 l/m 0 min 0 min 0 W/m 25,1 km/h (4 Bft)
28.11.2014 03:52 6,1 C 4,4 C 93 % 1007,2 hPa 0,0 l/m 0 min 0 min 0 W/m 16,7 km/h (3 Bft)
28.11.2014 03:54 6,0 C 4,4 C 93 % 1007,2 hPa 0,0 l/m 0 min 0 min 0 W/m 27,2 km/h (4 Bft)
28.11.2014 03:56 6,0 C 4,4 C 93 % 1007,2 hPa 0,0 l/m 0 min 0 min 0 W/m 20,9 km/h (4 Bft)
28.11.2014 03:58 6,0 C 4,4 C 93 % 1007,5 hPa 0,0 l/m 0 min 0 min 0 W/m 25,1 km/h (4 Bft)
28.11.2014 04:00 6,0 C 4,4 C 93 % 1007,4 hPa 0,0 l/m 0 min 0 min 0 W/m 27,2 km/h (4 Bft)
28.11.2014 04:02 6,0 C 4,4 C 93 % 1007,3 hPa 0,0 l/m 0 min 0 min 0 W/m 25,1 km/h (4 Bft)
28.11.2014 04:04 5,9 C 4,4 C 93 % 1007,3 hPa 0,0 l/m 0 min 0 min 0 W/m 27,2 km/h (4 Bft)
28.11.2014 04:06 5,9 C 4,4 C 93 % 1007,4 hPa 0,0 l/m 0 min 0 min 0 W/m 35,6 km/h (5 Bft)
28.11.2014 04:08 5,9 C 4,4 C 93 % 1007,4 hPa 0,0 l/m 0 min 0 min 0 W/m 31,4 km/h (5 Bft)
28.11.2014 04:10 5,9 C 4,4 C 93 % 1007,5 hPa 0,0 l/m 0 min 0 min 0 W/m 20,9 km/h (4 Bft)
28.11.2014 04:12 5,9 C 4,4 C 93 % 1007,4 hPa 0,0 l/m 0 min 0 min 0 W/m 23,0 km/h (4 Bft)
28.11.2014 04:14 5,9 C 4,4 C 93 % 1007,3 hPa 0,0 l/m 0 min 0 min 0 W/m 25,1 km/h (4 Bft)
28.11.2014 04:16 5,9 C 4,4 C 93 % 1007,5 hPa 0,0 l/m 0 min 0 min 0 W/m 29,3 km/h (5 Bft)
28.11.2014 04:18 5,9 C 4,4 C 93 % 1007,3 hPa 0,0 l/m 0 min 0 min 0 W/m 23,0 km/h (4 Bft)
28.11.2014 04:20 5,9 C 4,4 C 93 % 1007,4 hPa 0,0 l/m 0 min 0 min 0 W/m 23,0 km/h (4 Bft)
28.11.2014 04:22 5,9 C 4,4 C 93 % 1007,3 hPa 0,0 l/m 0 min 0 min 0 W/m 25,1 km/h (4 Bft)
28.11.2014 04:24 5,8 C 4,4 C 93 % 1007,4 hPa 0,0 l/m 0 min 0 min 0 W/m 27,2 km/h (4 Bft)
28.11.2014 04:26 5,8 C 4,4 C 93 % 1007,3 hPa 0,0 l/m 0 min 0 min 0 W/m 33,5 km/h (5 Bft)
28.11.2014 04:28 5,8 C 4,4 C 93 % 1007,3 hPa 0,0 l/m 0 min 0 min 0 W/m 25,1 km/h (4 Bft)
28.11.2014 04:30 5,8 C 4,4 C 93 % 1007,3 hPa 0,0 l/m 0 min 0 min 0 W/m 25,1 km/h (4 Bft)
28.11.2014 04:32 5,8 C 4,4 C 93 % 1007,3 hPa 0,0 l/m 0 min 0 min 0 W/m 25,1 km/h (4 Bft)
28.11.2014 04:34 5,8 C 4,4 C 93 % 1007,3 hPa 0,0 l/m 0 min 0 min 0 W/m 29,3 km/h (5 Bft)
28.11.2014 04:36 5,8 C 4,4 C 93 % 1007,4 hPa 0,0 l/m 0 min 0 min 0 W/m 23,0 km/h (4 Bft)
28.11.2014 04:38 5,8 C 4,4 C 93 % 1007,2 hPa 0,0 l/m 0 min 0 min 0 W/m 29,3 km/h (5 Bft)
28.11.2014 04:40 5,8 C 4,4 C 93 % 1007,2 hPa 0,0 l/m 0 min 0 min 0 W/m 29,3 km/h (5 Bft)
28.11.2014 04:42 5,8 C 4,4 C 93 % 1007,3 hPa 0,0 l/m 0 min 0 min 0 W/m 35,6 km/h (5 Bft)
28.11.2014 04:44 5,8 C 4,4 C 93 % 1007,2 hPa 0,0 l/m 0 min 0 min 0 W/m 31,4 km/h (5 Bft)
28.11.2014 04:46 5,8 C 4,4 C 93 % 1007,2 hPa 0,0 l/m 0 min 0 min 0 W/m 37,7 km/h (5 Bft)
28.11.2014 04:48 5,8 C 4,4 C 93 % 1007,2 hPa 0,0 l/m 0 min 0 min 0 W/m 37,7 km/h (5 Bft)
28.11.2014 04:50 5,8 C 4,4 C 93 % 1007,2 hPa 0,0 l/m 0 min 0 min 0 W/m 27,2 km/h (4 Bft)
28.11.2014 04:52 5,8 C 4,4 C 93 % 1007,3 hPa 0,0 l/m 0 min 0 min 0 W/m 29,3 km/h (5 Bft)
28.11.2014 04:54 5,8 C 4,4 C 93 % 1007,2 hPa 0,0 l/m 0 min 0 min 0 W/m 16,7 km/h (3 Bft)
28.11.2014 04:56 5,8 C 4,4 C 93 % 1007,2 hPa 0,0 l/m 0 min 0 min 0 W/m 25,1 km/h (4 Bft)
28.11.2014 04:58 5,8 C 4,4 C 93 % 1007,2 hPa 0,0 l/m 0 min 0 min 0 W/m 29,3 km/h (5 Bft)
28.11.2014 05:00 5,8 C 4,4 C 93 % 1007,1 hPa 0,0 l/m 0 min 0 min 0 W/m 31,4 km/h (5 Bft)
28.11.2014 05:02 5,8 C 4,4 C 93 % 1007,2 hPa 0,0 l/m 0 min 0 min 0 W/m 25,1 km/h (4 Bft)
28.11.2014 05:04 5,8 C 4,4 C 93 % 1007,2 hPa 0,0 l/m 0 min 0 min 0 W/m 27,2 km/h (4 Bft)
28.11.2014 05:06 5,8 C 4,4 C 93 % 1007,1 hPa 0,0 l/m 0 min 0 min 0 W/m 18,8 km/h (3 Bft)
28.11.2014 05:08 5,8 C 4,4 C 93 % 1007,2 hPa 0,0 l/m 0 min 0 min 0 W/m 27,2 km/h (4 Bft)
28.11.2014 05:10 5,8 C 4,4 C 93 % 1007,2 hPa 0,0 l/m 0 min 0 min 0 W/m 25,1 km/h (4 Bft)
28.11.2014 05:12 5,8 C 4,4 C 92 % 1007,1 hPa 0,0 l/m 0 min 0 min 0 W/m 20,9 km/h (4 Bft)
28.11.2014 05:14 5,8 C 4,4 C 93 % 1007,2 hPa 0,0 l/m 0 min 0 min 0 W/m 27,2 km/h (4 Bft)
28.11.2014 05:16 5,8 C 4,4 C 93 % 1007,2 hPa 0,0 l/m 0 min 0 min 0 W/m 27,2 km/h (4 Bft)
28.11.2014 05:18 5,8 C 4,4 C 92 % 1007,1 hPa 0,0 l/m 0 min 0 min 0 W/m 27,2 km/h (4 Bft)
28.11.2014 05:20 5,8 C 4,4 C 92 % 1007,1 hPa 0,0 l/m 0 min 0 min 0 W/m 29,3 km/h (5 Bft)
28.11.2014 05:22 5,8 C 4,4 C 92 % 1007,2 hPa 0,0 l/m 0 min 0 min 0 W/m 29,3 km/h (5 Bft)
28.11.2014 05:24 5,8 C 4,4 C 92 % 1007,1 hPa 0,0 l/m 0 min 0 min 0 W/m 25,1 km/h (4 Bft)
28.11.2014 05:26 5,8 C 4,4 C 92 % 1007,1 hPa 0,0 l/m 0 min 0 min 0 W/m 29,3 km/h (5 Bft)
28.11.2014 05:28 5,8 C 4,4 C 92 % 1007,1 hPa 0,0 l/m 0 min 0 min 0 W/m 27,2 km/h (4 Bft)
28.11.2014 05:30 5,8 C 4,4 C 92 % 1007,1 hPa 0,0 l/m 0 min 0 min 0 W/m 25,1 km/h (4 Bft)
28.11.2014 05:32 5,8 C 4,4 C 92 % 1007,2 hPa 0,0 l/m 0 min 0 min 0 W/m 27,2 km/h (4 Bft)
28.11.2014 05:34 5,8 C 4,4 C 92 % 1007,2 hPa 0,0 l/m 0 min 0 min 0 W/m 23,0 km/h (4 Bft)
28.11.2014 05:36 5,8 C 4,4 C 92 % 1007,2 hPa 0,0 l/m 0 min 0 min 0 W/m 18,8 km/h (3 Bft)
28.11.2014 05:38 5,8 C 4,4 C 92 % 1007,2 hPa 0,0 l/m 0 min 0 min 0 W/m 31,4 km/h (5 Bft)
28.11.2014 05:40 5,8 C 4,4 C 92 % 1007,2 hPa 0,0 l/m 0 min 0 min 0 W/m 25,1 km/h (4 Bft)
28.11.2014 05:42 5,8 C 4,4 C 92 % 1007,1 hPa 0,0 l/m 0 min 0 min 0 W/m 27,2 km/h (4 Bft)
28.11.2014 05:44 5,8 C 4,4 C 92 % 1007,1 hPa 0,0 l/m 0 min 0 min 0 W/m 20,9 km/h (4 Bft)
28.11.2014 05:46 5,8 C 4,4 C 92 % 1007,2 hPa 0,0 l/m 0 min 0 min 0 W/m 35,6 km/h (5 Bft)
28.11.2014 05:48 5,8 C 4,4 C 92 % 1007,3 hPa 0,0 l/m 0 min 0 min 0 W/m 23,0 km/h (4 Bft)
28.11.2014 05:50 5,8 C 4,4 C 92 % 1007,3 hPa 0,0 l/m 0 min 0 min 0 W/m 25,1 km/h (4 Bft)
28.11.2014 05:52 5,8 C 4,4 C 92 % 1007,2 hPa 0,0 l/m 0 min 0 min 0 W/m 46,0 km/h (6 Bft)
28.11.2014 05:54 5,8 C 4,4 C 92 % 1007,2 hPa 0,0 l/m 0 min 0 min 0 W/m 33,5 km/h (5 Bft)
28.11.2014 05:56 5,8 C 4,4 C 92 % 1007,2 hPa 0,0 l/m 0 min 0 min 0 W/m 25,1 km/h (4 Bft)
28.11.2014 05:58 5,8 C 4,4 C 92 % 1007,2 hPa 0,0 l/m 0 min 0 min 0 W/m 23,0 km/h (4 Bft)
28.11.2014 06:00 5,8 C 4,4 C 91 % 1007,2 hPa 0,0 l/m 0 min 0 min 0 W/m 27,2 km/h (4 Bft)
28.11.2014 06:02 5,8 C 4,4 C 91 % 1007,3 hPa 0,0 l/m 0 min 0 min 0 W/m 20,9 km/h (4 Bft)
28.11.2014 06:05 5,8 C 4,4 C 91 % 1007,3 hPa 0,0 l/m 0 min 0 min 0 W/m 29,3 km/h (5 Bft)
28.11.2014 06:06 5,8 C 4,4 C 91 % 1007,3 hPa 0,0 l/m 0 min 0 min 0 W/m 29,3 km/h (5 Bft)
28.11.2014 06:08 5,8 C 4,4 C 91 % 1007,4 hPa 0,0 l/m 0 min 0 min 0 W/m 25,1 km/h (4 Bft)
28.11.2014 06:10 5,8 C 4,4 C 91 % 1007,3 hPa 0,0 l/m 0 min 0 min 0 W/m 23,0 km/h (4 Bft)
28.11.2014 06:12 5,8 C 4,4 C 91 % 1007,2 hPa 0,0 l/m 0 min 0 min 0 W/m 25,1 km/h (4 Bft)
28.11.2014 06:14 5,8 C 4,4 C 91 % 1007,3 hPa 0,0 l/m 0 min 0 min 0 W/m 20,9 km/h (4 Bft)
28.11.2014 06:16 5,8 C 4,4 C 91 % 1007,5 hPa 0,0 l/m 0 min 0 min 0 W/m 27,2 km/h (4 Bft)
28.11.2014 06:18 5,8 C 4,4 C 91 % 1007,4 hPa 0,0 l/m 0 min 0 min 0 W/m 33,5 km/h (5 Bft)
28.11.2014 06:20 5,8 C 4,4 C 91 % 1007,4 hPa 0,0 l/m 0 min 0 min 0 W/m 20,9 km/h (4 Bft)
28.11.2014 06:22 5,8 C 4,4 C 91 % 1007,4 hPa 0,0 l/m 0 min 0 min 0 W/m 29,3 km/h (5 Bft)
28.11.2014 06:24 5,8 C 4,4 C 91 % 1007,3 hPa 0,0 l/m 0 min 0 min 0 W/m 33,5 km/h (5 Bft)
28.11.2014 06:26 5,8 C 4,4 C 91 % 1007,4 hPa 0,0 l/m 0 min 0 min 0 W/m 27,2 km/h (4 Bft)
28.11.2014 06:28 5,8 C 4,4 C 91 % 1007,3 hPa 0,0 l/m 0 min 0 min 0 W/m 20,9 km/h (4 Bft)
28.11.2014 06:30 5,8 C 4,4 C 91 % 1007,3 hPa 0,0 l/m 0 min 0 min 0 W/m 23,0 km/h (4 Bft)
28.11.2014 06:32 5,8 C 4,4 C 91 % 1007,5 hPa 0,0 l/m 0 min 0 min 0 W/m 27,2 km/h (4 Bft)
28.11.2014 06:34 5,8 C 4,4 C 91 % 1007,5 hPa 0,0 l/m 0 min 0 min 0 W/m 27,2 km/h (4 Bft)
28.11.2014 06:36 5,8 C 4,4 C 91 % 1007,4 hPa 0,0 l/m 0 min 0 min 0 W/m 25,1 km/h (4 Bft)
28.11.2014 06:38 5,8 C 4,4 C 91 % 1007,4 hPa 0,0 l/m 0 min 0 min 0 W/m 20,9 km/h (4 Bft)
28.11.2014 06:40 5,8 C 4,4 C 91 % 1007,3 hPa 0,0 l/m 0 min 0 min 0 W/m 25,1 km/h (4 Bft)
28.11.2014 06:42 5,8 C 4,4 C 91 % 1007,4 hPa 0,0 l/m 0 min 0 min 0 W/m 20,9 km/h (4 Bft)
28.11.2014 06:44 5,8 C 4,4 C 91 % 1007,4 hPa 0,0 l/m 0 min 0 min 0 W/m 35,6 km/h (5 Bft)
28.11.2014 06:46 5,8 C 4,4 C 91 % 1007,4 hPa 0,0 l/m 0 min 0 min 0 W/m 27,2 km/h (4 Bft)
28.11.2014 06:48 5,8 C 4,4 C 91 % 1007,4 hPa 0,0 l/m 0 min 0 min 0 W/m 23,0 km/h (4 Bft)
28.11.2014 06:50 5,8 C 4,4 C 91 % 1007,4 hPa 0,0 l/m 0 min 0 min 0 W/m 33,5 km/h (5 Bft)
28.11.2014 06:52 5,8 C 4,4 C 91 % 1007,4 hPa 0,0 l/m 0 min 0 min 0 W/m 37,7 km/h (5 Bft)
28.11.2014 06:54 5,8 C 4,4 C 91 % 1007,3 hPa 0,0 l/m 0 min 0 min 0 W/m 29,3 km/h (5 Bft)
28.11.2014 06:56 5,8 C 4,4 C 91 % 1007,2 hPa 0,0 l/m 0 min 0 min 0 W/m 27,2 km/h (4 Bft)
28.11.2014 06:58 5,8 C 4,4 C 91 % 1007,3 hPa 0,0 l/m 0 min 0 min 0 W/m 29,3 km/h (5 Bft)
28.11.2014 07:00 5,8 C 4,4 C 91 % 1007,3 hPa 0,0 l/m 0 min 0 min 0 W/m 20,9 km/h (4 Bft)
28.11.2014 07:02 5,8 C 4,4 C 91 % 1007,3 hPa 0,0 l/m 0 min 0 min 0 W/m 25,1 km/h (4 Bft)
28.11.2014 07:04 5,8 C 4,4 C 90 % 1007,5 hPa 0,0 l/m 0 min 0 min 0 W/m 31,4 km/h (5 Bft)
28.11.2014 07:06 5,8 C 4,4 C 90 % 1007,5 hPa 0,0 l/m 0 min 0 min 0 W/m 39,7 km/h (6 Bft)
28.11.2014 07:08 5,8 C 4,4 C 90 % 1007,5 hPa 0,0 l/m 0 min 0 min 0 W/m 23,0 km/h (4 Bft)
28.11.2014 07:10 5,8 C 4,4 C 90 % 1007,5 hPa 0,0 l/m 0 min 0 min 0 W/m 27,2 km/h (4 Bft)
28.11.2014 07:12 5,8 C 4,4 C 90 % 1007,6 hPa 0,0 l/m 0 min 0 min 0 W/m 27,2 km/h (4 Bft)
28.11.2014 07:14 5,8 C 4,4 C 90 % 1007,6 hPa 0,0 l/m 0 min 0 min 0 W/m 33,5 km/h (5 Bft)
28.11.2014 07:16 5,8 C 4,4 C 90 % 1007,6 hPa 0,0 l/m 0 min 0 min 0 W/m 27,2 km/h (4 Bft)
28.11.2014 07:18 5,8 C 4,4 C 90 % 1007,6 hPa 0,0 l/m 0 min 0 min 0 W/m 23,0 km/h (4 Bft)
28.11.2014 07:20 5,8 C 3,9 C 90 % 1007,5 hPa 0,0 l/m 0 min 0 min 0 W/m 20,9 km/h (4 Bft)
28.11.2014 07:22 5,8 C 3,9 C 90 % 1007,6 hPa 0,0 l/m 0 min 0 min 0 W/m 18,8 km/h (3 Bft)
28.11.2014 07:24 5,8 C 3,9 C 90 % 1007,6 hPa 0,0 l/m 0 min 0 min 0 W/m 20,9 km/h (4 Bft)
28.11.2014 07:26 5,8 C 3,9 C 90 % 1007,7 hPa 0,0 l/m 0 min 0 min 0 W/m 31,4 km/h (5 Bft)
28.11.2014 07:28 5,8 C 3,9 C 90 % 1007,6 hPa 0,0 l/m 0 min 0 min 0 W/m 33,5 km/h (5 Bft)
28.11.2014 07:30 5,8 C 3,9 C 90 % 1007,6 hPa 0,0 l/m 0 min 0 min 0 W/m 18,8 km/h (3 Bft)
28.11.2014 07:32 5,8 C 3,9 C 90 % 1007,6 hPa 0,0 l/m 0 min 0 min 0 W/m 35,6 km/h (5 Bft)
28.11.2014 07:34 5,8 C 3,9 C 90 % 1007,7 hPa 0,0 l/m 0 min 0 min 0 W/m 27,2 km/h (4 Bft)
28.11.2014 07:36 5,8 C 3,9 C 90 % 1007,8 hPa 0,0 l/m 0 min 0 min 0 W/m 27,2 km/h (4 Bft)
28.11.2014 07:38 5,8 C 3,9 C 90 % 1007,7 hPa 0,0 l/m 0 min 0 min 0 W/m 29,3 km/h (5 Bft)
28.11.2014 07:40 5,8 C 3,9 C 90 % 1007,8 hPa 0,0 l/m 0 min 0 min 0 W/m 27,2 km/h (4 Bft)
28.11.2014 07:42 5,7 C 3,9 C 90 % 1007,7 hPa 0,0 l/m 0 min 0 min 0 W/m 33,5 km/h (5 Bft)
28.11.2014 07:44 5,7 C 3,9 C 90 % 1007,6 hPa 0,0 l/m 0 min 0 min 0 W/m 31,4 km/h (5 Bft)
28.11.2014 07:46 5,7 C 3,9 C 90 % 1007,6 hPa 0,0 l/m 0 min 0 min 0 W/m 27,2 km/h (4 Bft)
28.11.2014 07:48 5,7 C 3,9 C 90 % 1007,6 hPa 0,0 l/m 0 min 0 min 0 W/m 31,4 km/h (5 Bft)
28.11.2014 07:50 5,7 C 3,9 C 90 % 1007,8 hPa 0,0 l/m 0 min 0 min 0 W/m 35,6 km/h (5 Bft)
28.11.2014 07:52 5,7 C 3,9 C 90 % 1007,7 hPa 0,0 l/m 0 min 0 min 0 W/m 29,3 km/h (5 Bft)
28.11.2014 07:54 5,7 C 3,9 C 90 % 1007,7 hPa 0,0 l/m 0 min 0 min 0 W/m 23,0 km/h (4 Bft)
28.11.2014 07:56 5,7 C 3,9 C 90 % 1007,7 hPa 0,0 l/m 0 min 0 min 0 W/m 20,9 km/h (4 Bft)
28.11.2014 07:58 5,7 C 3,9 C 90 % 1007,7 hPa 0,0 l/m 0 min 0 min 0 W/m 23,0 km/h (4 Bft)
28.11.2014 08:00 5,7 C 3,9 C 90 % 1007,9 hPa 0,0 l/m 0 min 0 min 1 W/m 25,1 km/h (4 Bft)
28.11.2014 08:02 5,7 C 3,9 C 90 % 1007,9 hPa 0,0 l/m 0 min 0 min 5 W/m 20,9 km/h (4 Bft)
28.11.2014 08:04 5,7 C 3,9 C 90 % 1007,9 hPa 0,0 l/m 0 min 0 min 7 W/m 23,0 km/h (4 Bft)
28.11.2014 08:06 5,7 C 3,9 C 90 % 1007,8 hPa 0,0 l/m 0 min 0 min 7 W/m 27,2 km/h (4 Bft)
28.11.2014 08:08 5,7 C 3,9 C 90 % 1007,9 hPa 0,0 l/m 0 min 0 min 8 W/m 29,3 km/h (5 Bft)
28.11.2014 08:10 5,7 C 3,9 C 90 % 1008,0 hPa 0,0 l/m 0 min 0 min 9 W/m 18,8 km/h (3 Bft)
28.11.2014 08:12 5,7 C 3,9 C 90 % 1008,0 hPa 0,0 l/m 0 min 0 min 7 W/m 29,3 km/h (5 Bft)
28.11.2014 08:14 5,7 C 3,9 C 90 % 1008,0 hPa 0,0 l/m 0 min 0 min 6 W/m 25,1 km/h (4 Bft)
28.11.2014 08:16 5,7 C 4,4 C 90 % 1008,0 hPa 0,0 l/m 0 min 0 min 5 W/m 20,9 km/h (4 Bft)
28.11.2014 08:18 5,7 C 4,4 C 90 % 1008,1 hPa 0,0 l/m 0 min 0 min 5 W/m 25,1 km/h (4 Bft)
28.11.2014 08:20 5,7 C 4,4 C 90 % 1008,2 hPa 0,0 l/m 0 min 0 min 5 W/m 29,3 km/h (5 Bft)
28.11.2014 08:22 5,7 C 4,4 C 90 % 1008,1 hPa 0,0 l/m 0 min 0 min 5 W/m 31,4 km/h (5 Bft)
28.11.2014 08:24 5,7 C 4,4 C 90 % 1008,2 hPa 0,0 l/m 0 min 0 min 5 W/m 27,2 km/h (4 Bft)
28.11.2014 08:26 5,7 C 4,4 C 90 % 1008,5 hPa 0,0 l/m 0 min 0 min 7 W/m 27,2 km/h (4 Bft)
28.11.2014 08:28 5,7 C 4,4 C 90 % 1008,4 hPa 0,0 l/m 0 min 0 min 7 W/m 31,4 km/h (5 Bft)
28.11.2014 08:30 5,7 C 4,4 C 90 % 1008,5 hPa 0,0 l/m 0 min 2 min 7 W/m 25,1 km/h (4 Bft)
28.11.2014 08:32 5,8 C 4,4 C 90 % 1008,4 hPa 0,0 l/m 0 min 2 min 7 W/m 25,1 km/h (4 Bft)
28.11.2014 08:34 5,8 C 4,4 C 90 % 1008,4 hPa 0,0 l/m 0 min 0 min 7 W/m 29,3 km/h (5 Bft)
28.11.2014 08:36 5,8 C 4,4 C 90 % 1008,3 hPa 0,0 l/m 0 min 0 min 8 W/m 18,8 km/h (3 Bft)
28.11.2014 08:38 5,8 C 4,4 C 90 % 1008,5 hPa 0,0 l/m 0 min 2 min 9 W/m 25,1 km/h (4 Bft)
28.11.2014 08:40 5,8 C 4,4 C 90 % 1008,6 hPa 0,0 l/m 0 min 2 min 11 W/m 18,8 km/h (3 Bft)
28.11.2014 08:42 5,8 C 3,9 C 90 % 1008,5 hPa 0,0 l/m 0 min 2 min 12 W/m 18,8 km/h (3 Bft)
28.11.2014 08:44 5,8 C 3,9 C 91 % 1008,5 hPa 0,0 l/m 0 min 2 min 14 W/m 35,6 km/h (5 Bft)
28.11.2014 08:46 5,9 C 3,9 C 91 % 1008,4 hPa 0,0 l/m 0 min 2 min 15 W/m 29,3 km/h (5 Bft)
28.11.2014 08:48 5,8 C 3,9 C 91 % 1008,3 hPa 0,0 l/m 0 min 2 min 17 W/m 25,1 km/h (4 Bft)
28.11.2014 08:50 5,9 C 3,9 C 91 % 1008,3 hPa 0,0 l/m 0 min 2 min 19 W/m 23,0 km/h (4 Bft)
28.11.2014 08:52 5,8 C 3,9 C 91 % 1008,3 hPa 0,0 l/m 0 min 0 min 22 W/m 41,8 km/h (6 Bft)
28.11.2014 08:54 5,8 C 3,9 C 91 % 1008,3 hPa 0,0 l/m 0 min 0 min 25 W/m 27,2 km/h (4 Bft)
28.11.2014 08:56 5,9 C 3,9 C 91 % 1008,3 hPa 0,0 l/m 0 min 0 min 26 W/m 25,1 km/h (4 Bft)
28.11.2014 08:58 5,8 C 3,9 C 91 % 1008,2 hPa 0,0 l/m 0 min 0 min 28 W/m 27,2 km/h (4 Bft)
28.11.2014 09:00 5,8 C 3,9 C 91 % 1008,2 hPa 0,0 l/m 0 min 0 min 29 W/m 18,8 km/h (3 Bft)
28.11.2014 09:02 5,8 C 3,9 C 91 % 1008,2 hPa 0,0 l/m 0 min 0 min 30 W/m 27,2 km/h (4 Bft)
28.11.2014 09:04 5,8 C 3,9 C 91 % 1008,2 hPa 0,0 l/m 0 min 0 min 31 W/m 29,3 km/h (5 Bft)
28.11.2014 09:06 5,8 C 3,9 C 91 % 1008,2 hPa 0,0 l/m 0 min 0 min 33 W/m 33,5 km/h (5 Bft)
28.11.2014 09:08 5,8 C 3,9 C 91 % 1008,3 hPa 0,0 l/m 0 min 0 min 33 W/m 33,5 km/h (5 Bft)
28.11.2014 09:10 5,8 C 3,9 C 91 % 1008,4 hPa 0,0 l/m 0 min 0 min 33 W/m 10,5 km/h (2 Bft)
28.11.2014 09:12 5,8 C 4,4 C 91 % 1008,3 hPa 0,0 l/m 0 min 0 min 34 W/m 25,1 km/h (4 Bft)
28.11.2014 09:14 5,8 C 4,4 C 91 % 1008,2 hPa 0,0 l/m 0 min 0 min 36 W/m 27,2 km/h (4 Bft)
28.11.2014 09:16 5,8 C 4,4 C 91 % 1008,2 hPa 0,0 l/m 0 min 0 min 36 W/m 29,3 km/h (5 Bft)
28.11.2014 09:18 5,8 C 4,4 C 91 % 1008,2 hPa 0,0 l/m 0 min 0 min 38 W/m 29,3 km/h (5 Bft)
28.11.2014 09:20 5,8 C 4,4 C 91 % 1008,2 hPa 0,0 l/m 0 min 0 min 40 W/m 29,3 km/h (5 Bft)
28.11.2014 09:22 5,9 C 4,4 C 91 % 1008,3 hPa 0,0 l/m 0 min 0 min 37 W/m 27,2 km/h (4 Bft)
28.11.2014 09:24 5,9 C 4,4 C 91 % 1008,3 hPa 0,0 l/m 0 min 2 min 40 W/m 35,6 km/h (5 Bft)
28.11.2014 09:26 5,9 C 4,4 C 91 % 1008,4 hPa 0,0 l/m 0 min 2 min 46 W/m 35,6 km/h (5 Bft)
28.11.2014 09:28 5,9 C 4,4 C 91 % 1008,4 hPa 0,0 l/m 0 min 0 min 48 W/m 27,2 km/h (4 Bft)
28.11.2014 09:30 5,9 C 4,4 C 91 % 1008,4 hPa 0,0 l/m 0 min 0 min 51 W/m 35,6 km/h (5 Bft)
28.11.2014 09:32 5,9 C 4,4 C 91 % 1008,5 hPa 0,0 l/m 0 min 0 min 55 W/m 25,1 km/h (4 Bft)
28.11.2014 09:34 6,0 C 4,4 C 91 % 1008,4 hPa 0,0 l/m 0 min 0 min 59 W/m 29,3 km/h (5 Bft)
28.11.2014 09:36 6,0 C 4,4 C 91 % 1008,5 hPa 0,0 l/m 0 min 0 min 62 W/m 35,6 km/h (5 Bft)
28.11.2014 09:38 6,0 C 4,4 C 91 % 1008,5 hPa 0,0 l/m 0 min 0 min 62 W/m 25,1 km/h (4 Bft)
28.11.2014 09:40 6,0 C 4,4 C 91 % 1008,5 hPa 0,0 l/m 0 min 0 min 62 W/m 27,2 km/h (4 Bft)
28.11.2014 09:42 6,1 C 4,4 C 91 % 1008,5 hPa 0,0 l/m 0 min 0 min 62 W/m 23,0 km/h (4 Bft)
28.11.2014 09:44 6,1 C 5,0 C 91 % 1008,5 hPa 0,0 l/m 0 min 0 min 61 W/m 29,3 km/h (5 Bft)
28.11.2014 09:46 6,1 C 5,0 C 91 % 1008,5 hPa 0,0 l/m 0 min 0 min 58 W/m 33,5 km/h (5 Bft)
28.11.2014 09:48 6,1 C 5,0 C 91 % 1008,6 hPa 0,0 l/m 0 min 0 min 54 W/m 27,2 km/h (4 Bft)
28.11.2014 09:50 6,1 C 5,0 C 91 % 1008,6 hPa 0,0 l/m 0 min 0 min 52 W/m 25,1 km/h (4 Bft)
28.11.2014 09:52 6,2 C 5,0 C 91 % 1008,6 hPa 0,0 l/m 0 min 0 min 50 W/m 27,2 km/h (4 Bft)
28.11.2014 09:54 6,2 C 5,0 C 91 % 1008,6 hPa 0,0 l/m 0 min 0 min 47 W/m 31,4 km/h (5 Bft)
28.11.2014 09:56 6,2 C 5,0 C 91 % 1008,6 hPa 0,0 l/m 0 min 0 min 48 W/m 33,5 km/h (5 Bft)
28.11.2014 09:58 6,2 C 5,0 C 90 % 1008,7 hPa 0,0 l/m 0 min 0 min 48 W/m 29,3 km/h (5 Bft)
28.11.2014 10:00 6,2 C 5,0 C 90 % 1008,7 hPa 0,0 l/m 0 min 0 min 49 W/m 20,9 km/h (4 Bft)
28.11.2014 10:02 6,2 C 5,0 C 90 % 1008,6 hPa 0,0 l/m 0 min 0 min 52 W/m 27,2 km/h (4 Bft)
28.11.2014 10:04 6,2 C 5,0 C 90 % 1008,6 hPa 0,0 l/m 0 min 0 min 57 W/m 29,3 km/h (5 Bft)
28.11.2014 10:06 6,2 C 5,0 C 90 % 1008,6 hPa 0,0 l/m 0 min 0 min 58 W/m 43,9 km/h (6 Bft)
28.11.2014 10:08 6,3 C 5,0 C 90 % 1008,6 hPa 0,0 l/m 0 min 0 min 56 W/m 29,3 km/h (5 Bft)
28.11.2014 10:10 6,3 C 5,0 C 90 % 1008,6 hPa 0,0 l/m 0 min 0 min 57 W/m 20,9 km/h (4 Bft)
28.11.2014 10:12 6,3 C 5,0 C 90 % 1008,6 hPa 0,0 l/m 0 min 0 min 61 W/m 23,0 km/h (4 Bft)
28.11.2014 10:14 6,3 C 5,0 C 90 % 1008,7 hPa 0,0 l/m 0 min 0 min 66 W/m 31,4 km/h (5 Bft)
28.11.2014 10:16 6,3 C 5,6 C 90 % 1008,6 hPa 0,0 l/m 0 min 0 min 72 W/m 33,5 km/h (5 Bft)
28.11.2014 10:18 6,3 C 5,6 C 90 % 1008,6 hPa 0,0 l/m 0 min 0 min 76 W/m 31,4 km/h (5 Bft)
28.11.2014 10:20 6,4 C 5,6 C 90 % 1008,6 hPa 0,0 l/m 0 min 0 min 79 W/m 35,6 km/h (5 Bft)
28.11.2014 10:22 6,4 C 5,6 C 90 % 1008,7 hPa 0,0 l/m 0 min 0 min 81 W/m 23,0 km/h (4 Bft)
28.11.2014 10:24 6,4 C 5,6 C 90 % 1008,7 hPa 0,0 l/m 0 min 0 min 85 W/m 31,4 km/h (5 Bft)
28.11.2014 10:26 6,4 C 5,6 C 90 % 1008,7 hPa 0,0 l/m 0 min 0 min 88 W/m 35,6 km/h (5 Bft)
28.11.2014 10:28 6,4 C 5,6 C 90 % 1008,8 hPa 0,0 l/m 0 min 0 min 91 W/m 29,3 km/h (5 Bft)
28.11.2014 10:30 6,4 C 5,6 C 89 % 1008,8 hPa 0,0 l/m 0 min 0 min 97 W/m 18,8 km/h (3 Bft)
28.11.2014 10:32 6,5 C 5,6 C 89 % 1008,9 hPa 0,0 l/m 0 min 0 min 96 W/m 27,2 km/h (4 Bft)
28.11.2014 10:34 6,5 C 5,6 C 89 % 1008,9 hPa 0,0 l/m 0 min 0 min 94 W/m 27,2 km/h (4 Bft)
28.11.2014 10:36 6,5 C 5,6 C 89 % 1009,0 hPa 0,0 l/m 0 min 0 min 93 W/m 27,2 km/h (4 Bft)
28.11.2014 10:38 6,6 C 5,6 C 89 % 1009,0 hPa 0,0 l/m 0 min 0 min 102 W/m 20,9 km/h (4 Bft)
28.11.2014 10:40 6,6 C 5,6 C 89 % 1008,9 hPa 0,0 l/m 0 min 0 min 113 W/m 27,2 km/h (4 Bft)
28.11.2014 10:42 6,6 C 6,1 C 89 % 1009,0 hPa 0,0 l/m 0 min 0 min 112 W/m 33,5 km/h (5 Bft)
28.11.2014 10:44 6,7 C 6,1 C 89 % 1009,1 hPa 0,0 l/m 0 min 0 min 111 W/m 27,2 km/h (4 Bft)
28.11.2014 10:46 6,7 C 6,1 C 89 % 1009,2 hPa 0,0 l/m 0 min 0 min 104 W/m 20,9 km/h (4 Bft)
28.11.2014 10:48 6,7 C 6,1 C 89 % 1009,3 hPa 0,0 l/m 0 min 0 min 88 W/m 25,1 km/h (4 Bft)
28.11.2014 10:50 6,7 C 6,1 C 89 % 1009,3 hPa 0,0 l/m 0 min 0 min 83 W/m 23,0 km/h (4 Bft)
28.11.2014 10:52 6,8 C 6,1 C 89 % 1009,3 hPa 0,0 l/m 0 min 0 min 77 W/m 31,4 km/h (5 Bft)
28.11.2014 10:55 6,8 C 6,1 C 89 % 1009,3 hPa 0,0 l/m 0 min 0 min 76 W/m 33,5 km/h (5 Bft)
28.11.2014 10:58 6,8 C 6,1 C 89 % 1009,2 hPa 0,0 l/m 0 min 0 min 77 W/m 23,0 km/h (4 Bft)
28.11.2014 11:00 6,8 C 6,1 C 89 % 1009,2 hPa 0,0 l/m 0 min 0 min 78 W/m 16,7 km/h (3 Bft)
28.11.2014 11:02 6,8 C 6,1 C 88 % 1009,2 hPa 0,0 l/m 0 min 0 min 72 W/m 20,9 km/h (4 Bft)
28.11.2014 11:04 6,8 C 6,1 C 88 % 1009,1 hPa 0,0 l/m 0 min 0 min 67 W/m 23,0 km/h (4 Bft)
28.11.2014 11:06 6,9 C 6,1 C 88 % 1009,0 hPa 0,0 l/m 0 min 0 min 63 W/m 23,0 km/h (4 Bft)
28.11.2014 11:08 6,9 C 6,1 C 88 % 1009,0 hPa 0,0 l/m 0 min 0 min 62 W/m 23,0 km/h (4 Bft)
28.11.2014 11:10 6,9 C 6,1 C 88 % 1008,9 hPa 0,0 l/m 0 min 0 min 62 W/m 25,1 km/h (4 Bft)
28.11.2014 11:12 6,9 C 6,1 C 88 % 1008,9 hPa 0,0 l/m 0 min 0 min 63 W/m 23,0 km/h (4 Bft)
28.11.2014 11:14 6,9 C 6,1 C 88 % 1008,8 hPa 0,0 l/m 0 min 0 min 69 W/m 29,3 km/h (5 Bft)
28.11.2014 11:16 6,9 C 6,1 C 88 % 1009,0 hPa 0,0 l/m 0 min 0 min 77 W/m 29,3 km/h (5 Bft)
28.11.2014 11:18 6,9 C 6,1 C 88 % 1008,9 hPa 0,0 l/m 0 min 0 min 95 W/m 29,3 km/h (5 Bft)
28.11.2014 11:20 6,9 C 6,1 C 88 % 1008,8 hPa 0,0 l/m 0 min 0 min 133 W/m 20,9 km/h (4 Bft)
28.11.2014 11:22 6,9 C 6,1 C 88 % 1008,8 hPa 0,0 l/m 0 min 0 min 144 W/m 18,8 km/h (3 Bft)
28.11.2014 11:24 6,9 C 6,1 C 88 % 1008,8 hPa 0,0 l/m 0 min 0 min 121 W/m 27,2 km/h (4 Bft)
28.11.2014 11:26 6,9 C 6,1 C 88 % 1008,8 hPa 0,0 l/m 0 min 0 min 117 W/m 27,2 km/h (4 Bft)
28.11.2014 11:28 7,0 C 6,7 C 88 % 1008,7 hPa 0,0 l/m 0 min 0 min 112 W/m 27,2 km/h (4 Bft)
28.11.2014 11:30 7,0 C 6,1 C 88 % 1008,7 hPa 0,0 l/m 0 min 0 min 109 W/m 35,6 km/h (5 Bft)
28.11.2014 11:32 7,1 C 6,1 C 88 % 1008,7 hPa 0,0 l/m 0 min 0 min 110 W/m 37,7 km/h (5 Bft)
28.11.2014 11:34 7,1 C 6,1 C 88 % 1008,7 hPa 0,0 l/m 0 min 0 min 116 W/m 37,7 km/h (5 Bft)
28.11.2014 11:36 7,1 C 6,7 C 88 % 1008,7 hPa 0,0 l/m 0 min 0 min 138 W/m 23,0 km/h (4 Bft)
28.11.2014 11:38 7,2 C 6,7 C 88 % 1008,6 hPa 0,0 l/m 0 min 0 min 150 W/m 33,5 km/h (5 Bft)
28.11.2014 11:40 7,2 C 6,7 C 88 % 1008,6 hPa 0,0 l/m 0 min 0 min 162 W/m 37,7 km/h (5 Bft)
28.11.2014 11:42 7,2 C 6,7 C 87 % 1008,6 hPa 0,0 l/m 2 min 0 min 163 W/m 35,6 km/h (5 Bft)
28.11.2014 11:44 7,2 C 6,7 C 87 % 1008,6 hPa 0,0 l/m 0 min 0 min 149 W/m 33,5 km/h (5 Bft)
28.11.2014 11:46 7,3 C 6,7 C 87 % 1008,6 hPa 0,0 l/m 0 min 0 min 142 W/m 37,7 km/h (5 Bft)
28.11.2014 11:48 7,3 C 6,7 C 88 % 1008,7 hPa 0,0 l/m 0 min 0 min 135 W/m 37,7 km/h (5 Bft)
28.11.2014 11:50 7,4 C 6,7 C 87 % 1008,7 hPa 0,0 l/m 0 min 0 min 127 W/m 25,1 km/h (4 Bft)
28.11.2014 11:52 7,4 C 6,7 C 87 % 1008,6 hPa 0,0 l/m 0 min 0 min 118 W/m 20,9 km/h (4 Bft)
28.11.2014 11:54 7,4 C 6,7 C 87 % 1008,6 hPa 0,0 l/m 0 min 0 min 115 W/m 25,1 km/h (4 Bft)
28.11.2014 11:56 7,4 C 6,7 C 87 % 1008,5 hPa 0,0 l/m 0 min 0 min 123 W/m 27,2 km/h (4 Bft)
28.11.2014 11:58 7,5 C 6,7 C 87 % 1008,5 hPa 0,0 l/m 2 min 0 min 188 W/m 23,0 km/h (4 Bft)
28.11.2014 12:00 7,5 C 6,7 C 87 % 1008,5 hPa 0,0 l/m 2 min 0 min 261 W/m 20,9 km/h (4 Bft)
28.11.2014 12:02 7,6 C 7,2 C 87 % 1008,5 hPa 0,0 l/m 2 min 0 min 293 W/m 23,0 km/h (4 Bft)
28.11.2014 12:05 7,7 C 7,2 C 87 % 1008,6 hPa 0,0 l/m 2 min 0 min 308 W/m 31,4 km/h (5 Bft)
28.11.2014 12:06 7,8 C 7,2 C 87 % 1008,6 hPa 0,0 l/m 1 min 0 min 304 W/m 31,4 km/h (5 Bft)
28.11.2014 12:08 7,9 C 7,2 C 87 % 1008,7 hPa 0,0 l/m 2 min 0 min 300 W/m 29,3 km/h (5 Bft)
28.11.2014 12:10 7,9 C 7,2 C 87 % 1008,6 hPa 0,0 l/m 2 min 0 min 233 W/m 27,2 km/h (4 Bft)
28.11.2014 12:12 8,1 C 7,2 C 87 % 1008,6 hPa 0,0 l/m 2 min 0 min 179 W/m 33,5 km/h (5 Bft)
28.11.2014 12:14 8,1 C 7,2 C 86 % 1008,6 hPa 0,0 l/m 2 min 0 min 246 W/m 33,5 km/h (5 Bft)
28.11.2014 12:16 8,2 C 7,2 C 86 % 1008,6 hPa 0,0 l/m 2 min 0 min 231 W/m 29,3 km/h (5 Bft)
28.11.2014 12:18 8,2 C 6,7 C 86 % 1008,6 hPa 0,0 l/m 2 min 0 min 173 W/m 25,1 km/h (4 Bft)
28.11.2014 12:20 8,2 C 6,7 C 85 % 1008,6 hPa 0,0 l/m 0 min 0 min 104 W/m 33,5 km/h (5 Bft)
28.11.2014 12:22 8,2 C 6,7 C 85 % 1008,6 hPa 0,0 l/m 0 min 0 min 77 W/m 27,2 km/h (4 Bft)
28.11.2014 12:24 8,3 C 6,7 C 85 % 1008,6 hPa 0,0 l/m 0 min 0 min 84 W/m 23,0 km/h (4 Bft)
28.11.2014 12:26 8,3 C 6,7 C 85 % 1008,6 hPa 0,0 l/m 0 min 0 min 162 W/m 25,1 km/h (4 Bft)
28.11.2014 12:28 8,3 C 6,7 C 85 % 1008,5 hPa 0,0 l/m 2 min 0 min 270 W/m 29,3 km/h (5 Bft)
28.11.2014 12:30 8,3 C 7,2 C 85 % 1008,5 hPa 0,0 l/m 2 min 0 min 260 W/m 20,9 km/h (4 Bft)
28.11.2014 12:32 8,4 C 7,2 C 85 % 1008,4 hPa 0,0 l/m 2 min 0 min 260 W/m 27,2 km/h (4 Bft)
28.11.2014 12:34 8,4 C 7,2 C 85 % 1008,4 hPa 0,0 l/m 2 min 0 min 275 W/m 27,2 km/h (4 Bft)
28.11.2014 12:36 8,5 C 7,2 C 85 % 1008,5 hPa 0,0 l/m 2 min 0 min 278 W/m 41,8 km/h (6 Bft)
28.11.2014 12:38 8,6 C 7,2 C 85 % 1008,6 hPa 0,0 l/m 2 min 0 min 293 W/m 25,1 km/h (4 Bft)
28.11.2014 12:40 8,7 C 7,2 C 85 % 1008,6 hPa 0,0 l/m 2 min 0 min 291 W/m 12,6 km/h (3 Bft)
28.11.2014 12:42 8,7 C 7,8 C 85 % 1008,7 hPa 0,0 l/m 2 min 0 min 274 W/m 20,9 km/h (4 Bft)
28.11.2014 12:44 8,8 C 7,8 C 85 % 1008,7 hPa 0,0 l/m 2 min 0 min 258 W/m 23,0 km/h (4 Bft)
28.11.2014 12:46 8,9 C 7,8 C 85 % 1008,7 hPa 0,0 l/m 2 min 0 min 206 W/m 29,3 km/h (5 Bft)
28.11.2014 12:48 9,0 C 7,2 C 84 % 1008,6 hPa 0,0 l/m 0 min 0 min 101 W/m 16,7 km/h (3 Bft)
28.11.2014 12:50 9,0 C 7,2 C 84 % 1008,7 hPa 0,0 l/m 0 min 0 min 103 W/m 23,0 km/h (4 Bft)
28.11.2014 12:52 9,1 C 7,2 C 83 % 1008,7 hPa 0,0 l/m 0 min 0 min 110 W/m 18,8 km/h (3 Bft)
28.11.2014 12:54 9,1 C 7,2 C 83 % 1008,7 hPa 0,0 l/m 0 min 0 min 118 W/m 10,5 km/h (2 Bft)
28.11.2014 12:56 9,1 C 7,2 C 83 % 1008,7 hPa 0,0 l/m 0 min 0 min 118 W/m 16,7 km/h (3 Bft)
28.11.2014 12:58 9,1 C 7,2 C 83 % 1008,8 hPa 0,0 l/m 0 min 0 min 118 W/m 20,9 km/h (4 Bft)
28.11.2014 13:00 9,0 C 7,2 C 82 % 1008,8 hPa 0,0 l/m 0 min 0 min 119 W/m 20,9 km/h (4 Bft)
28.11.2014 13:02 9,0 C 7,2 C 82 % 1008,7 hPa 0,0 l/m 0 min 0 min 113 W/m 23,0 km/h (4 Bft)
28.11.2014 13:04 9,0 C 7,2 C 82 % 1008,7 hPa 0,0 l/m 0 min 0 min 103 W/m 16,7 km/h (3 Bft)
28.11.2014 13:06 8,9 C 7,2 C 82 % 1008,8 hPa 0,0 l/m 0 min 0 min 95 W/m 14,6 km/h (3 Bft)
28.11.2014 13:08 8,9 C 7,2 C 83 % 1008,7 hPa 0,0 l/m 0 min 0 min 91 W/m 18,8 km/h (3 Bft)
28.11.2014 13:10 8,9 C 7,2 C 83 % 1008,7 hPa 0,0 l/m 0 min 0 min 84 W/m 16,7 km/h (3 Bft)
28.11.2014 13:12 8,8 C 7,2 C 83 % 1008,7 hPa 0,0 l/m 0 min 0 min 81 W/m 25,1 km/h (4 Bft)
28.11.2014 13:14 8,8 C 7,2 C 83 % 1008,7 hPa 0,0 l/m 0 min 0 min 79 W/m 25,1 km/h (4 Bft)
28.11.2014 13:16 8,8 C 7,2 C 83 % 1008,7 hPa 0,0 l/m 0 min 0 min 78 W/m 20,9 km/h (4 Bft)
28.11.2014 13:18 8,7 C 7,2 C 83 % 1008,7 hPa 0,0 l/m 0 min 0 min 77 W/m 27,2 km/h (4 Bft)
28.11.2014 13:20 8,7 C 7,2 C 83 % 1008,7 hPa 0,0 l/m 0 min 0 min 78 W/m 20,9 km/h (4 Bft)
28.11.2014 13:22 8,7 C 7,2 C 83 % 1008,7 hPa 0,0 l/m 0 min 0 min 81 W/m 23,0 km/h (4 Bft)
28.11.2014 13:24 8,7 C 7,2 C 83 % 1008,7 hPa 0,0 l/m 0 min 0 min 81 W/m 20,9 km/h (4 Bft)
28.11.2014 13:26 8,7 C 7,2 C 83 % 1008,7 hPa 0,0 l/m 0 min 0 min 79 W/m 23,0 km/h (4 Bft)
28.11.2014 13:28 8,6 C 7,2 C 84 % 1008,7 hPa 0,0 l/m 0 min 0 min 79 W/m 18,8 km/h (3 Bft)
28.11.2014 13:30 8,6 C 7,2 C 84 % 1008,6 hPa 0,0 l/m 0 min 0 min 78 W/m 23,0 km/h (4 Bft)
28.11.2014 13:32 8,6 C 7,2 C 84 % 1008,6 hPa 0,0 l/m 0 min 0 min 75 W/m 20,9 km/h (4 Bft)
28.11.2014 13:34 8,6 C 7,2 C 84 % 1008,6 hPa 0,0 l/m 0 min 0 min 73 W/m 20,9 km/h (4 Bft)
28.11.2014 13:36 8,6 C 7,2 C 83 % 1008,5 hPa 0,0 l/m 0 min 0 min 70 W/m 23,0 km/h (4 Bft)
28.11.2014 13:38 8,5 C 7,2 C 83 % 1008,5 hPa 0,0 l/m 0 min 0 min 72 W/m 27,2 km/h (4 Bft)
28.11.2014 13:40 8,5 C 7,2 C 83 % 1008,5 hPa 0,0 l/m 0 min 0 min 74 W/m 23,0 km/h (4 Bft)
28.11.2014 13:42 8,5 C 7,2 C 83 % 1008,5 hPa 0,0 l/m 0 min 0 min 74 W/m 20,9 km/h (4 Bft)
28.11.2014 13:44 8,5 C 7,2 C 83 % 1008,5 hPa 0,0 l/m 0 min 0 min 74 W/m 27,2 km/h (4 Bft)
28.11.2014 13:46 8,5 C 7,2 C 84 % 1008,5 hPa 0,0 l/m 0 min 0 min 72 W/m 27,2 km/h (4 Bft)
28.11.2014 13:48 8,5 C 7,2 C 83 % 1008,6 hPa 0,0 l/m 0 min 0 min 72 W/m 23,0 km/h (4 Bft)
28.11.2014 13:50 8,4 C 7,2 C 83 % 1008,5 hPa 0,0 l/m 0 min 0 min 72 W/m 20,9 km/h (4 Bft)
28.11.2014 13:52 8,4 C 7,2 C 84 % 1008,5 hPa 0,0 l/m 0 min 0 min 73 W/m 23,0 km/h (4 Bft)
28.11.2014 13:54 8,4 C 7,2 C 84 % 1008,5 hPa 0,0 l/m 0 min 0 min 75 W/m 14,6 km/h (3 Bft)
28.11.2014 13:56 8,4 C 7,2 C 84 % 1008,5 hPa 0,0 l/m 0 min 0 min 79 W/m 20,9 km/h (4 Bft)
28.11.2014 13:58 8,4 C 7,2 C 84 % 1008,5 hPa 0,0 l/m 0 min 0 min 85 W/m 23,0 km/h (4 Bft)
28.11.2014 14:00 8,4 C 7,2 C 84 % 1008,4 hPa 0,0 l/m 0 min 0 min 90 W/m 20,9 km/h (4 Bft)
28.11.2014 14:02 8,4 C 7,2 C 84 % 1008,4 hPa 0,0 l/m 0 min 0 min 94 W/m 18,8 km/h (3 Bft)
28.11.2014 14:04 8,4 C 7,8 C 84 % 1008,4 hPa 0,0 l/m 0 min 0 min 96 W/m 20,9 km/h (4 Bft)
28.11.2014 14:06 8,5 C 7,8 C 84 % 1008,4 hPa 0,0 l/m 0 min 0 min 98 W/m 20,9 km/h (4 Bft)
28.11.2014 14:08 8,5 C 7,8 C 84 % 1008,5 hPa 0,0 l/m 0 min 0 min 101 W/m 23,0 km/h (4 Bft)
28.11.2014 14:10 8,5 C 7,8 C 84 % 1008,5 hPa 0,0 l/m 0 min 0 min 104 W/m 12,6 km/h (3 Bft)
28.11.2014 14:12 8,6 C 7,8 C 84 % 1008,5 hPa 0,0 l/m 0 min 0 min 105 W/m 18,8 km/h (3 Bft)
28.11.2014 14:14 8,6 C 7,8 C 84 % 1008,5 hPa 0,0 l/m 0 min 0 min 103 W/m 18,8 km/h (3 Bft)
28.11.2014 14:16 8,6 C 7,8 C 84 % 1008,6 hPa 0,0 l/m 0 min 0 min 93 W/m 20,9 km/h (4 Bft)
28.11.2014 14:18 8,6 C 7,8 C 84 % 1008,6 hPa 0,0 l/m 0 min 0 min 82 W/m 16,7 km/h (3 Bft)
28.11.2014 14:20 8,6 C 7,8 C 84 % 1008,5 hPa 0,0 l/m 0 min 0 min 74 W/m 20,9 km/h (4 Bft)
28.11.2014 14:22 8,6 C 7,8 C 84 % 1008,5 hPa 0,0 l/m 0 min 0 min 67 W/m 23,0 km/h (4 Bft)
28.11.2014 14:24 8,6 C 7,2 C 84 % 1008,5 hPa 0,0 l/m 0 min 0 min 63 W/m 12,6 km/h (3 Bft)
28.11.2014 14:26 8,6 C 7,2 C 84 % 1008,5 hPa 0,0 l/m 0 min 0 min 61 W/m 14,6 km/h (3 Bft)
28.11.2014 14:28 8,6 C 7,2 C 84 % 1008,5 hPa 0,0 l/m 0 min 0 min 60 W/m 14,6 km/h (3 Bft)
28.11.2014 14:30 8,6 C 7,2 C 84 % 1008,5 hPa 0,0 l/m 0 min 0 min 60 W/m 18,8 km/h (3 Bft)
28.11.2014 14:32 8,6 C 7,2 C 84 % 1008,4 hPa 0,0 l/m 0 min 0 min 60 W/m 23,0 km/h (4 Bft)
28.11.2014 14:34 8,6 C 7,2 C 84 % 1008,4 hPa 0,0 l/m 0 min 0 min 63 W/m 20,9 km/h (4 Bft)
28.11.2014 14:36 8,6 C 7,2 C 84 % 1008,4 hPa 0,0 l/m 0 min 0 min 68 W/m 20,9 km/h (4 Bft)
28.11.2014 14:38 8,6 C 7,2 C 84 % 1008,4 hPa 0,0 l/m 0 min 0 min 69 W/m 23,0 km/h (4 Bft)
28.11.2014 14:40 8,6 C 7,2 C 84 % 1008,5 hPa 0,0 l/m 0 min 0 min 70 W/m 20,9 km/h (4 Bft)
28.11.2014 14:42 8,6 C 7,2 C 84 % 1008,5 hPa 0,0 l/m 0 min 0 min 72 W/m 14,6 km/h (3 Bft)
28.11.2014 14:44 8,7 C 7,2 C 84 % 1008,6 hPa 0,0 l/m 0 min 0 min 74 W/m 16,7 km/h (3 Bft)
28.11.2014 14:46 8,7 C 7,2 C 84 % 1008,6 hPa 0,0 l/m 0 min 0 min 71 W/m 16,7 km/h (3 Bft)
28.11.2014 14:48 8,7 C 7,2 C 84 % 1008,7 hPa 0,0 l/m 0 min 0 min 68 W/m 16,7 km/h (3 Bft)
28.11.2014 14:50 8,6 C 7,2 C 84 % 1008,7 hPa 0,0 l/m 0 min 0 min 67 W/m 18,8 km/h (3 Bft)
28.11.2014 14:52 8,6 C 7,2 C 85 % 1008,7 hPa 0,0 l/m 0 min 0 min 67 W/m 16,7 km/h (3 Bft)
28.11.2014 14:54 8,6 C 7,2 C 85 % 1008,8 hPa 0,0 l/m 0 min 0 min 67 W/m 14,6 km/h (3 Bft)
28.11.2014 14:56 8,6 C 7,2 C 85 % 1008,8 hPa 0,0 l/m 0 min 0 min 66 W/m 10,5 km/h (2 Bft)
28.11.2014 14:58 8,6 C 7,2 C 85 % 1008,8 hPa 0,0 l/m 0 min 0 min 63 W/m 10,5 km/h (2 Bft)
28.11.2014 15:00 8,6 C 7,2 C 85 % 1008,8 hPa 0,0 l/m 0 min 0 min 62 W/m 14,6 km/h (3 Bft)
28.11.2014 15:02 8,6 C 7,2 C 85 % 1008,8 hPa 0,0 l/m 0 min 0 min 59 W/m 20,9 km/h (4 Bft)
28.11.2014 15:04 8,5 C 7,2 C 85 % 1008,8 hPa 0,0 l/m 0 min 0 min 56 W/m 18,8 km/h (3 Bft)
28.11.2014 15:06 8,5 C 7,2 C 85 % 1008,8 hPa 0,0 l/m 0 min 0 min 58 W/m 16,7 km/h (3 Bft)
28.11.2014 15:08 8,5 C 7,2 C 84 % 1008,9 hPa 0,0 l/m 0 min 0 min 53 W/m 18,8 km/h (3 Bft)
28.11.2014 15:10 8,4 C 7,2 C 85 % 1008,9 hPa 0,0 l/m 0 min 0 min 51 W/m 14,6 km/h (3 Bft)
28.11.2014 15:12 8,4 C 7,2 C 85 % 1008,8 hPa 0,0 l/m 0 min 0 min 49 W/m 20,9 km/h (4 Bft)
28.11.2014 15:14 8,4 C 7,2 C 85 % 1008,9 hPa 0,0 l/m 0 min 0 min 48 W/m 20,9 km/h (4 Bft)
28.11.2014 15:16 8,4 C 7,2 C 85 % 1008,8 hPa 0,0 l/m 0 min 0 min 45 W/m 20,9 km/h (4 Bft)
28.11.2014 15:18 8,4 C 7,2 C 85 % 1008,8 hPa 0,0 l/m 0 min 0 min 43 W/m 20,9 km/h (4 Bft)
28.11.2014 15:20 8,4 C 7,2 C 85 % 1008,8 hPa 0,0 l/m 0 min 0 min 40 W/m 16,7 km/h (3 Bft)
28.11.2014 15:22 8,4 C 7,2 C 85 % 1008,8 hPa 0,0 l/m 0 min 0 min 37 W/m 20,9 km/h (4 Bft)
28.11.2014 15:24 8,4 C 7,2 C 85 % 1008,9 hPa 0,0 l/m 0 min 0 min 34 W/m 16,7 km/h (3 Bft)
28.11.2014 15:26 8,3 C 7,2 C 85 % 1008,9 hPa 0,0 l/m 0 min 0 min 32 W/m 25,1 km/h (4 Bft)
28.11.2014 15:28 8,3 C 7,2 C 85 % 1008,9 hPa 0,0 l/m 0 min 0 min 30 W/m 18,8 km/h (3 Bft)
28.11.2014 15:30 8,3 C 6,7 C 85 % 1008,9 hPa 0,0 l/m 0 min 0 min 28 W/m 25,1 km/h (4 Bft)
28.11.2014 15:32 8,3 C 6,7 C 85 % 1008,9 hPa 0,0 l/m 0 min 0 min 26 W/m 18,8 km/h (3 Bft)
28.11.2014 15:34 8,3 C 6,7 C 85 % 1008,9 hPa 0,0 l/m 0 min 0 min 28 W/m 20,9 km/h (4 Bft)
28.11.2014 15:36 8,2 C 6,7 C 85 % 1009,0 hPa 0,0 l/m 0 min 0 min 30 W/m 20,9 km/h (4 Bft)
28.11.2014 15:38 8,2 C 6,7 C 85 % 1008,9 hPa 0,0 l/m 0 min 0 min 35 W/m 12,6 km/h (3 Bft)
28.11.2014 15:40 8,2 C 6,7 C 85 % 1008,9 hPa 0,0 l/m 0 min 0 min 39 W/m 20,9 km/h (4 Bft)
28.11.2014 15:42 8,2 C 6,7 C 85 % 1008,9 hPa 0,0 l/m 0 min 0 min 39 W/m 16,7 km/h (3 Bft)
28.11.2014 15:44 8,2 C 6,7 C 85 % 1008,9 hPa 0,0 l/m 0 min 0 min 39 W/m 16,7 km/h (3 Bft)
28.11.2014 15:46 8,2 C 6,7 C 85 % 1008,9 hPa 0,0 l/m 0 min 0 min 39 W/m 16,7 km/h (3 Bft)
28.11.2014 15:48 8,2 C 6,7 C 85 % 1009,0 hPa 0,0 l/m 0 min 0 min 36 W/m 20,9 km/h (4 Bft)
28.11.2014 15:50 8,1 C 6,7 C 85 % 1009,0 hPa 0,0 l/m 0 min 0 min 35 W/m 20,9 km/h (4 Bft)
28.11.2014 15:52 8,1 C 6,7 C 85 % 1009,0 hPa 0,0 l/m 0 min 0 min 34 W/m 16,7 km/h (3 Bft)
28.11.2014 15:54 8,1 C 6,7 C 85 % 1008,9 hPa 0,0 l/m 0 min 0 min 33 W/m 27,2 km/h (4 Bft)
28.11.2014 15:56 8,1 C 6,7 C 85 % 1008,9 hPa 0,0 l/m 0 min 0 min 33 W/m 16,7 km/h (3 Bft)
28.11.2014 15:58 8,1 C 6,7 C 85 % 1008,9 hPa 0,0 l/m 2 min 0 min 34 W/m 14,6 km/h (3 Bft)
28.11.2014 16:00 8,1 C 6,7 C 85 % 1008,9 hPa 0,0 l/m 2 min 0 min 34 W/m 18,8 km/h (3 Bft)
28.11.2014 16:05 8,1 C 6,7 C 85 % 1009,0 hPa 0,0 l/m 2 min 0 min 29 W/m 18,8 km/h (3 Bft)
28.11.2014 16:10 8,0 C 6,7 C 85 % 1009,0 hPa 0,0 l/m 2 min 0 min 27 W/m 16,7 km/h (3 Bft)
28.11.2014 16:15 8,0 C 6,7 C 85 % 1009,0 hPa 0,0 l/m 2 min 0 min 19 W/m 18,8 km/h (3 Bft)
28.11.2014 16:20 7,9 C 6,1 C 85 % 1009,2 hPa 0,0 l/m 0 min 0 min 13 W/m 18,8 km/h (3 Bft)
28.11.2014 16:25 7,9 C 6,1 C 85 % 1009,1 hPa 0,0 l/m 0 min 0 min 10 W/m 18,8 km/h (3 Bft)
28.11.2014 16:30 7,8 C 6,1 C 85 % 1009,2 hPa 0,0 l/m 0 min 0 min 6 W/m 16,7 km/h (3 Bft)
28.11.2014 16:35 7,7 C 5,6 C 86 % 1009,3 hPa 0,0 l/m 0 min 0 min 4 W/m 16,7 km/h (3 Bft)
28.11.2014 16:40 7,7 C 5,6 C 86 % 1009,5 hPa 0,0 l/m 0 min 0 min 0 W/m 20,9 km/h (4 Bft)
28.11.2014 16:45 7,5 C 5,6 C 86 % 1009,7 hPa 0,0 l/m 0 min 0 min 0 W/m 16,7 km/h (3 Bft)
28.11.2014 16:50 7,4 C 5,6 C 86 % 1009,7 hPa 0,0 l/m 0 min 0 min 0 W/m 14,6 km/h (3 Bft)
28.11.2014 16:55 7,3 C 5,0 C 86 % 1009,7 hPa 0,0 l/m 0 min 0 min 0 W/m 10,5 km/h (2 Bft)
28.11.2014 17:00 7,2 C 5,0 C 86 % 1009,8 hPa 0,0 l/m 0 min 0 min 0 W/m 14,6 km/h (3 Bft)
28.11.2014 17:05 7,1 C 5,0 C 86 % 1009,8 hPa 0,0 l/m 0 min 0 min 0 W/m 12,6 km/h (3 Bft)
28.11.2014 17:08 7,1 C 5,0 C 86 % 1009,8 hPa 0,0 l/m 0 min 0 min 26 W/m 16,7 km/h (3 Bft)
28.11.2014 17:10 7,0 C 5,0 C 86 % 1009,8 hPa 0,0 l/m 0 min 0 min 0 W/m 12,6 km/h (3 Bft)
28.11.2014 17:12 6,9 C 5,0 C 86 % 1009,9 hPa 0,0 l/m 0 min 0 min 0 W/m 12,6 km/h (3 Bft)
28.11.2014 17:14 6,9 C 5,0 C 87 % 1009,9 hPa 0,0 l/m 0 min 0 min 0 W/m 16,7 km/h (3 Bft)
28.11.2014 17:16 6,9 C 5,0 C 87 % 1009,8 hPa 0,0 l/m 0 min 0 min 0 W/m 10,5 km/h (2 Bft)
28.11.2014 17:18 6,8 C 5,0 C 87 % 1009,9 hPa 0,0 l/m 0 min 0 min 0 W/m 16,7 km/h (3 Bft)
28.11.2014 17:20 6,8 C 4,4 C 87 % 1009,9 hPa 0,0 l/m 0 min 0 min 0 W/m 8,4 km/h (2 Bft)
28.11.2014 17:22 6,8 C 4,4 C 87 % 1010,0 hPa 0,0 l/m 0 min 0 min 0 W/m 10,5 km/h (2 Bft)
28.11.2014 17:24 6,7 C 4,4 C 87 % 1010,0 hPa 0,0 l/m 0 min 0 min 0 W/m 6,3 km/h (2 Bft)
28.11.2014 17:26 6,7 C 4,4 C 87 % 1009,9 hPa 0,0 l/m 0 min 0 min 0 W/m 10,5 km/h (2 Bft)
28.11.2014 17:28 6,7 C 4,4 C 87 % 1010,0 hPa 0,0 l/m 0 min 0 min 0 W/m 10,5 km/h (2 Bft)
28.11.2014 17:30 6,6 C 4,4 C 87 % 1010,0 hPa 0,0 l/m 0 min 0 min 0 W/m 10,5 km/h (2 Bft)
28.11.2014 17:32 6,6 C 4,4 C 87 % 1009,9 hPa 0,0 l/m 0 min 0 min 0 W/m 10,5 km/h (2 Bft)
28.11.2014 17:34 6,6 C 4,4 C 87 % 1010,0 hPa 0,0 l/m 0 min 0 min 0 W/m 12,6 km/h (3 Bft)
28.11.2014 17:36 6,5 C 4,4 C 87 % 1010,0 hPa 0,0 l/m 0 min 0 min 0 W/m 16,7 km/h (3 Bft)
28.11.2014 17:38 6,4 C 4,4 C 87 % 1010,0 hPa 0,0 l/m 0 min 0 min 0 W/m 10,5 km/h (2 Bft)
28.11.2014 17:40 6,4 C 4,4 C 87 % 1010,0 hPa 0,0 l/m 0 min 0 min 0 W/m 12,6 km/h (3 Bft)
28.11.2014 17:42 6,4 C 4,4 C 87 % 1010,1 hPa 0,0 l/m 0 min 0 min 0 W/m 14,6 km/h (3 Bft)
28.11.2014 17:44 6,3 C 4,4 C 87 % 1010,2 hPa 0,0 l/m 0 min 0 min 0 W/m 14,6 km/h (3 Bft)
28.11.2014 17:46 6,3 C 4,4 C 87 % 1010,1 hPa 0,0 l/m 0 min 0 min 0 W/m 14,6 km/h (3 Bft)
28.11.2014 17:48 6,3 C 4,4 C 87 % 1010,0 hPa 0,0 l/m 0 min 0 min 0 W/m 16,7 km/h (3 Bft)
28.11.2014 17:50 6,2 C 4,4 C 88 % 1010,1 hPa 0,0 l/m 0 min 0 min 0 W/m 14,6 km/h (3 Bft)
28.11.2014 17:52 6,2 C 4,4 C 88 % 1010,2 hPa 0,0 l/m 0 min 0 min 0 W/m 14,6 km/h (3 Bft)
28.11.2014 17:54 6,1 C 4,4 C 88 % 1010,2 hPa 0,0 l/m 0 min 0 min 0 W/m 14,6 km/h (3 Bft)
28.11.2014 17:56 6,1 C 3,9 C 88 % 1010,3 hPa 0,0 l/m 0 min 0 min 0 W/m 14,6 km/h (3 Bft)
28.11.2014 17:58 6,1 C 4,4 C 88 % 1010,3 hPa 0,0 l/m 0 min 0 min 0 W/m 16,7 km/h (3 Bft)
28.11.2014 18:00 6,0 C 4,4 C 88 % 1010,3 hPa 0,0 l/m 0 min 0 min 0 W/m 12,6 km/h (3 Bft)
28.11.2014 18:02 6,0 C 3,9 C 88 % 1010,3 hPa 0,0 l/m 0 min 0 min 0 W/m 10,5 km/h (2 Bft)
28.11.2014 18:05 5,9 C 3,9 C 88 % 1010,3 hPa 0,0 l/m 0 min 0 min 0 W/m 10,5 km/h (2 Bft)
28.11.2014 18:08 5,9 C 3,9 C 88 % 1010,4 hPa 0,0 l/m 0 min 0 min 0 W/m 14,6 km/h (3 Bft)
28.11.2014 18:10 5,8 C 3,9 C 88 % 1010,4 hPa 0,0 l/m 0 min 0 min 0 W/m 12,6 km/h (3 Bft)
28.11.2014 18:12 5,8 C 3,9 C 88 % 1010,4 hPa 0,0 l/m 0 min 0 min 0 W/m 12,6 km/h (3 Bft)
28.11.2014 18:14 5,8 C 3,9 C 88 % 1010,4 hPa 0,0 l/m 0 min 0 min 0 W/m 14,6 km/h (3 Bft)
28.11.2014 18:16 5,8 C 3,9 C 88 % 1010,5 hPa 0,0 l/m 0 min 0 min 0 W/m 8,4 km/h (2 Bft)
28.11.2014 18:18 5,7 C 3,9 C 89 % 1010,6 hPa 0,0 l/m 0 min 0 min 0 W/m 10,5 km/h (2 Bft)
28.11.2014 18:20 5,7 C 3,9 C 89 % 1010,6 hPa 0,0 l/m 0 min 0 min 0 W/m 14,6 km/h (3 Bft)
28.11.2014 18:22 5,7 C 3,9 C 89 % 1010,7 hPa 0,0 l/m 0 min 0 min 0 W/m 14,6 km/h (3 Bft)
28.11.2014 18:24 5,6 C 3,9 C 89 % 1010,7 hPa 0,0 l/m 0 min 0 min 0 W/m 12,6 km/h (3 Bft)
28.11.2014 18:26 5,6 C 3,9 C 89 % 1010,7 hPa 0,0 l/m 0 min 0 min 0 W/m 12,6 km/h (3 Bft)
28.11.2014 18:28 5,6 C 3,9 C 89 % 1010,6 hPa 0,0 l/m 0 min 0 min 0 W/m 16,7 km/h (3 Bft)
28.11.2014 18:30 5,6 C 3,9 C 89 % 1010,6 hPa 0,0 l/m 0 min 0 min 0 W/m 20,9 km/h (4 Bft)
28.11.2014 18:32 5,5 C 3,9 C 89 % 1010,6 hPa 0,0 l/m 0 min 0 min 0 W/m 14,6 km/h (3 Bft)
28.11.2014 18:34 5,4 C 3,9 C 89 % 1010,5 hPa 0,0 l/m 0 min 0 min 0 W/m 12,6 km/h (3 Bft)
28.11.2014 18:36 5,4 C 3,9 C 89 % 1010,5 hPa 0,0 l/m 0 min 0 min 0 W/m 8,4 km/h (2 Bft)
28.11.2014 18:38 5,4 C 3,9 C 89 % 1010,4 hPa 0,0 l/m 0 min 0 min 0 W/m 14,6 km/h (3 Bft)
28.11.2014 18:40 5,4 C 3,9 C 89 % 1010,5 hPa 0,0 l/m 0 min 0 min 0 W/m 10,5 km/h (2 Bft)
28.11.2014 18:42 5,4 C 3,9 C 89 % 1010,6 hPa 0,0 l/m 0 min 0 min 0 W/m 16,7 km/h (3 Bft)
28.11.2014 18:44 5,3 C 3,9 C 89 % 1010,5 hPa 0,0 l/m 0 min 0 min 0 W/m 16,7 km/h (3 Bft)
28.11.2014 18:46 5,3 C 3,9 C 89 % 1010,6 hPa 0,0 l/m 0 min 0 min 0 W/m 14,6 km/h (3 Bft)
28.11.2014 18:48 5,3 C 3,9 C 89 % 1010,7 hPa 0,0 l/m 0 min 0 min 0 W/m 14,6 km/h (3 Bft)
28.11.2014 18:50 5,3 C 3,9 C 90 % 1010,8 hPa 0,0 l/m 0 min 0 min 0 W/m 12,6 km/h (3 Bft)
28.11.2014 18:52 5,2 C 3,9 C 90 % 1010,8 hPa 0,0 l/m 0 min 0 min 0 W/m 8,4 km/h (2 Bft)
28.11.2014 18:54 5,2 C 3,3 C 90 % 1010,9 hPa 0,0 l/m 0 min 0 min 0 W/m 16,7 km/h (3 Bft)
28.11.2014 18:56 5,2 C 3,9 C 90 % 1010,9 hPa 0,0 l/m 0 min 0 min 0 W/m 16,7 km/h (3 Bft)
28.11.2014 18:58 5,2 C 3,9 C 90 % 1010,9 hPa 0,0 l/m 0 min 0 min 0 W/m 27,2 km/h (4 Bft)
28.11.2014 19:00 5,2 C 3,9 C 90 % 1010,9 hPa 0,0 l/m 0 min 0 min 0 W/m 18,8 km/h (3 Bft)
28.11.2014 19:02 5,1 C 3,9 C 90 % 1010,8 hPa 0,0 l/m 0 min 0 min 0 W/m 18,8 km/h (3 Bft)
28.11.2014 19:04 5,1 C 3,9 C 90 % 1010,9 hPa 0,0 l/m 0 min 0 min 0 W/m 14,6 km/h (3 Bft)
28.11.2014 19:06 5,1 C 3,9 C 90 % 1010,8 hPa 0,0 l/m 0 min 0 min 0 W/m 20,9 km/h (4 Bft)
28.11.2014 19:08 5,1 C 3,9 C 90 % 1010,8 hPa 0,0 l/m 0 min 0 min 0 W/m 20,9 km/h (4 Bft)
28.11.2014 19:10 5,1 C 3,9 C 90 % 1010,9 hPa 0,0 l/m 0 min 0 min 0 W/m 16,7 km/h (3 Bft)
28.11.2014 19:12 5,1 C 3,9 C 90 % 1010,9 hPa 0,0 l/m 0 min 0 min 0 W/m 23,0 km/h (4 Bft)
28.11.2014 19:14 5,1 C 3,9 C 90 % 1011,0 hPa 0,0 l/m 0 min 0 min 0 W/m 20,9 km/h (4 Bft)
28.11.2014 19:16 5,1 C 3,9 C 91 % 1010,9 hPa 0,0 l/m 0 min 0 min 0 W/m 23,0 km/h (4 Bft)
28.11.2014 19:18 5,1 C 3,9 C 91 % 1010,9 hPa 0,0 l/m 0 min 0 min 0 W/m 29,3 km/h (5 Bft)
28.11.2014 19:20 5,1 C 3,9 C 91 % 1010,9 hPa 0,0 l/m 0 min 0 min 0 W/m 29,3 km/h (5 Bft)
28.11.2014 19:22 5,1 C 3,9 C 91 % 1010,9 hPa 0,0 l/m 0 min 0 min 0 W/m 27,2 km/h (4 Bft)
28.11.2014 19:24 5,1 C 3,9 C 91 % 1010,9 hPa 0,0 l/m 0 min 0 min 0 W/m 23,0 km/h (4 Bft)
28.11.2014 19:26 5,1 C 3,9 C 91 % 1010,9 hPa 0,0 l/m 0 min 0 min 0 W/m 29,3 km/h (5 Bft)
28.11.2014 19:28 5,1 C 3,9 C 91 % 1010,9 hPa 0,0 l/m 0 min 0 min 0 W/m 25,1 km/h (4 Bft)
28.11.2014 19:30 5,2 C 3,9 C 91 % 1010,9 hPa 0,0 l/m 0 min 0 min 0 W/m 18,8 km/h (3 Bft)
28.11.2014 19:32 5,2 C 3,9 C 91 % 1010,9 hPa 0,0 l/m 0 min 0 min 0 W/m 18,8 km/h (3 Bft)
28.11.2014 19:34 5,2 C 3,9 C 91 % 1011,0 hPa 0,0 l/m 0 min 0 min 0 W/m 29,3 km/h (5 Bft)
28.11.2014 19:36 5,2 C 3,9 C 91 % 1010,9 hPa 0,0 l/m 0 min 0 min 0 W/m 29,3 km/h (5 Bft)
28.11.2014 19:38 5,2 C 3,9 C 90 % 1011,0 hPa 0,0 l/m 0 min 0 min 0 W/m 33,5 km/h (5 Bft)
28.11.2014 19:40 5,2 C 3,9 C 90 % 1011,0 hPa 0,0 l/m 0 min 0 min 0 W/m 27,2 km/h (4 Bft)
28.11.2014 19:42 5,2 C 3,9 C 90 % 1011,0 hPa 0,0 l/m 0 min 0 min 0 W/m 27,2 km/h (4 Bft)
28.11.2014 19:44 5,2 C 3,9 C 90 % 1011,0 hPa 0,0 l/m 0 min 0 min 0 W/m 25,1 km/h (4 Bft)
28.11.2014 19:46 5,3 C 3,9 C 90 % 1011,1 hPa 0,0 l/m 0 min 0 min 0 W/m 27,2 km/h (4 Bft)
28.11.2014 19:48 5,3 C 3,9 C 90 % 1011,0 hPa 0,0 l/m 0 min 0 min 0 W/m 25,1 km/h (4 Bft)
28.11.2014 19:50 5,3 C 3,9 C 90 % 1011,0 hPa 0,0 l/m 0 min 0 min 0 W/m 23,0 km/h (4 Bft)
28.11.2014 19:52 5,3 C 3,9 C 90 % 1011,1 hPa 0,0 l/m 0 min 0 min 0 W/m 27,2 km/h (4 Bft)
28.11.2014 19:54 5,3 C 3,9 C 90 % 1011,1 hPa 0,0 l/m 0 min 0 min 0 W/m 23,0 km/h (4 Bft)
28.11.2014 19:56 5,3 C 3,9 C 90 % 1011,1 hPa 0,0 l/m 0 min 0 min 0 W/m 25,1 km/h (4 Bft)
28.11.2014 19:58 5,3 C 3,9 C 90 % 1011,2 hPa 0,0 l/m 0 min 0 min 0 W/m 31,4 km/h (5 Bft)
28.11.2014 20:00 5,3 C 3,9 C 90 % 1011,1 hPa 0,0 l/m 0 min 0 min 0 W/m 25,1 km/h (4 Bft)
28.11.2014 20:02 5,3 C 3,9 C 90 % 1011,1 hPa 0,0 l/m 0 min 0 min 0 W/m 18,8 km/h (3 Bft)
28.11.2014 20:04 5,2 C 3,9 C 90 % 1011,1 hPa 0,0 l/m 0 min 0 min 0 W/m 23,0 km/h (4 Bft)
28.11.2014 20:06 5,2 C 3,9 C 90 % 1011,1 hPa 0,0 l/m 0 min 0 min 0 W/m 23,0 km/h (4 Bft)
28.11.2014 20:08 5,2 C 3,9 C 90 % 1011,1 hPa 0,0 l/m 0 min 0 min 0 W/m 20,9 km/h (4 Bft)
28.11.2014 20:10 5,2 C 3,9 C 90 % 1011,0 hPa 0,0 l/m 0 min 0 min 0 W/m 29,3 km/h (5 Bft)
28.11.2014 20:12 5,2 C 3,9 C 90 % 1011,1 hPa 0,0 l/m 0 min 0 min 0 W/m 29,3 km/h (5 Bft)
28.11.2014 20:14 5,2 C 3,9 C 89 % 1011,1 hPa 0,0 l/m 0 min 0 min 0 W/m 27,2 km/h (4 Bft)
28.11.2014 20:16 5,2 C 3,9 C 89 % 1011,2 hPa 0,0 l/m 0 min 0 min 0 W/m 27,2 km/h (4 Bft)
28.11.2014 20:18 5,2 C 3,9 C 89 % 1011,2 hPa 0,0 l/m 0 min 0 min 0 W/m 23,0 km/h (4 Bft)
28.11.2014 20:20 5,2 C 3,9 C 89 % 1011,2 hPa 0,0 l/m 0 min 0 min 0 W/m 20,9 km/h (4 Bft)
28.11.2014 20:22 5,2 C 3,9 C 89 % 1011,3 hPa 0,0 l/m 0 min 0 min 0 W/m 29,3 km/h (5 Bft)
28.11.2014 20:24 5,2 C 3,9 C 89 % 1011,4 hPa 0,0 l/m 0 min 0 min 0 W/m 23,0 km/h (4 Bft)
28.11.2014 20:26 5,2 C 3,9 C 89 % 1011,4 hPa 0,0 l/m 0 min 0 min 0 W/m 23,0 km/h (4 Bft)
28.11.2014 20:28 5,1 C 3,9 C 89 % 1011,3 hPa 0,0 l/m 0 min 0 min 0 W/m 29,3 km/h (5 Bft)
28.11.2014 20:30 5,1 C 3,9 C 89 % 1011,3 hPa 0,0 l/m 0 min 0 min 0 W/m 23,0 km/h (4 Bft)
28.11.2014 20:32 5,1 C 3,9 C 89 % 1011,3 hPa 0,0 l/m 0 min 0 min 0 W/m 27,2 km/h (4 Bft)
28.11.2014 20:34 5,1 C 3,9 C 89 % 1011,4 hPa 0,0 l/m 0 min 0 min 0 W/m 23,0 km/h (4 Bft)
28.11.2014 20:36 5,1 C 3,9 C 89 % 1011,4 hPa 0,0 l/m 0 min 0 min 0 W/m 18,8 km/h (3 Bft)
28.11.2014 20:38 5,1 C 3,3 C 89 % 1011,5 hPa 0,0 l/m 0 min 0 min 0 W/m 18,8 km/h (3 Bft)
28.11.2014 20:40 5,1 C 3,3 C 89 % 1011,5 hPa 0,0 l/m 0 min 0 min 0 W/m 23,0 km/h (4 Bft)
28.11.2014 20:42 5,0 C 3,3 C 89 % 1011,5 hPa 0,0 l/m 0 min 0 min 0 W/m 27,2 km/h (4 Bft)
28.11.2014 20:44 5,0 C 3,9 C 89 % 1011,5 hPa 0,0 l/m 0 min 0 min 0 W/m 25,1 km/h (4 Bft)
28.11.2014 20:46 5,0 C 3,3 C 89 % 1011,5 hPa 0,0 l/m 0 min 0 min 0 W/m 20,9 km/h (4 Bft)
28.11.2014 20:48 5,0 C 3,3 C 89 % 1011,5 hPa 0,0 l/m 0 min 0 min 0 W/m 27,2 km/h (4 Bft)
28.11.2014 20:50 4,9 C 3,3 C 89 % 1011,5 hPa 0,0 l/m 0 min 0 min 0 W/m 20,9 km/h (4 Bft)
28.11.2014 20:52 4,9 C 3,3 C 89 % 1011,5 hPa 0,0 l/m 0 min 0 min 0 W/m 27,2 km/h (4 Bft)
28.11.2014 20:54 4,9 C 3,3 C 89 % 1011,5 hPa 0,0 l/m 0 min 0 min 0 W/m 23,0 km/h (4 Bft)
28.11.2014 20:56 4,9 C 3,3 C 89 % 1011,5 hPa 0,0 l/m 0 min 0 min 0 W/m 27,2 km/h (4 Bft)
28.11.2014 20:58 4,9 C 3,3 C 89 % 1011,6 hPa 0,0 l/m 0 min 0 min 0 W/m 23,0 km/h (4 Bft)
28.11.2014 21:00 4,9 C 3,3 C 89 % 1011,6 hPa 0,0 l/m 0 min 0 min 0 W/m 23,0 km/h (4 Bft)
28.11.2014 21:02 4,8 C 3,3 C 90 % 1011,6 hPa 0,0 l/m 0 min 0 min 0 W/m 23,0 km/h (4 Bft)
28.11.2014 21:04 4,8 C 3,3 C 90 % 1011,6 hPa 0,0 l/m 0 min 0 min 0 W/m 16,7 km/h (3 Bft)
28.11.2014 21:06 4,8 C 3,3 C 90 % 1011,6 hPa 0,0 l/m 0 min 0 min 0 W/m 20,9 km/h (4 Bft)
28.11.2014 21:08 4,8 C 3,3 C 90 % 1011,6 hPa 0,0 l/m 0 min 0 min 0 W/m 18,8 km/h (3 Bft)
28.11.2014 21:10 4,8 C 3,3 C 90 % 1011,6 hPa 0,0 l/m 0 min 0 min 0 W/m 20,9 km/h (4 Bft)
28.11.2014 21:12 4,8 C 3,3 C 90 % 1011,6 hPa 0,0 l/m 0 min 0 min 0 W/m 23,0 km/h (4 Bft)
28.11.2014 21:14 4,8 C 3,3 C 90 % 1011,6 hPa 0,0 l/m 0 min 0 min 0 W/m 25,1 km/h (4 Bft)
28.11.2014 21:16 4,7 C 3,3 C 90 % 1011,6 hPa 0,0 l/m 0 min 0 min 0 W/m 20,9 km/h (4 Bft)
28.11.2014 21:18 4,7 C 3,3 C 90 % 1011,6 hPa 0,0 l/m 0 min 0 min 0 W/m 20,9 km/h (4 Bft)
28.11.2014 21:20 4,7 C 3,3 C 90 % 1011,6 hPa 0,0 l/m 0 min 0 min 0 W/m 18,8 km/h (3 Bft)
28.11.2014 21:22 4,7 C 3,3 C 90 % 1011,5 hPa 0,0 l/m 0 min 0 min 0 W/m 23,0 km/h (4 Bft)
28.11.2014 21:24 4,7 C 3,3 C 90 % 1011,6 hPa 0,0 l/m 0 min 0 min 0 W/m 18,8 km/h (3 Bft)
28.11.2014 21:26 4,7 C 3,3 C 90 % 1011,6 hPa 0,0 l/m 0 min 0 min 0 W/m 18,8 km/h (3 Bft)
28.11.2014 21:28 4,6 C 3,3 C 90 % 1011,6 hPa 0,0 l/m 0 min 0 min 0 W/m 18,8 km/h (3 Bft)
28.11.2014 21:30 4,6 C 3,3 C 90 % 1011,6 hPa 0,0 l/m 0 min 0 min 0 W/m 18,8 km/h (3 Bft)
28.11.2014 21:32 4,6 C 3,3 C 90 % 1011,6 hPa 0,0 l/m 0 min 0 min 0 W/m 14,6 km/h (3 Bft)
28.11.2014 21:34 4,6 C 3,3 C 90 % 1011,8 hPa 0,0 l/m 0 min 0 min 0 W/m 23,0 km/h (4 Bft)
28.11.2014 21:36 4,6 C 3,3 C 90 % 1011,8 hPa 0,0 l/m 0 min 0 min 0 W/m 23,0 km/h (4 Bft)
28.11.2014 21:38 4,6 C 2,8 C 90 % 1011,9 hPa 0,0 l/m 0 min 0 min 0 W/m 23,0 km/h (4 Bft)
28.11.2014 21:40 4,5 C 3,3 C 90 % 1012,0 hPa 0,0 l/m 0 min 0 min 0 W/m 27,2 km/h (4 Bft)
28.11.2014 21:42 4,5 C 2,8 C 90 % 1012,0 hPa 0,0 l/m 0 min 0 min 0 W/m 18,8 km/h (3 Bft)
28.11.2014 21:44 4,5 C 2,8 C 90 % 1012,1 hPa 0,0 l/m 0 min 0 min 0 W/m 25,1 km/h (4 Bft)
28.11.2014 21:46 4,4 C 2,8 C 90 % 1012,1 hPa 0,0 l/m 0 min 0 min 0 W/m 20,9 km/h (4 Bft)
28.11.2014 21:48 4,4 C 3,3 C 90 % 1012,0 hPa 0,0 l/m 0 min 0 min 0 W/m 20,9 km/h (4 Bft)
28.11.2014 21:50 4,4 C 3,3 C 90 % 1012,0 hPa 0,0 l/m 0 min 0 min 0 W/m 16,7 km/h (3 Bft)
28.11.2014 21:52 4,4 C 3,3 C 90 % 1012,0 hPa 0,0 l/m 0 min 0 min 0 W/m 16,7 km/h (3 Bft)
28.11.2014 21:54 4,4 C 2,8 C 90 % 1011,9 hPa 0,0 l/m 0 min 0 min 0 W/m 18,8 km/h (3 Bft)
28.11.2014 21:56 4,4 C 2,8 C 90 % 1011,9 hPa 0,0 l/m 0 min 0 min 0 W/m 20,9 km/h (4 Bft)
28.11.2014 21:58 4,3 C 2,8 C 90 % 1012,0 hPa 0,0 l/m 0 min 0 min 0 W/m 23,0 km/h (4 Bft)
28.11.2014 22:00 4,3 C 2,8 C 90 % 1012,0 hPa 0,0 l/m 0 min 0 min 0 W/m 23,0 km/h (4 Bft)
28.11.2014 22:02 4,3 C 2,8 C 91 % 1012,0 hPa 0,0 l/m 0 min 0 min 0 W/m 25,1 km/h (4 Bft)
28.11.2014 22:04 4,3 C 2,8 C 91 % 1012,0 hPa 0,0 l/m 0 min 0 min 0 W/m 29,3 km/h (5 Bft)
28.11.2014 22:06 4,3 C 3,3 C 91 % 1012,0 hPa 0,0 l/m 0 min 0 min 0 W/m 29,3 km/h (5 Bft)
28.11.2014 22:08 4,3 C 2,8 C 91 % 1012,0 hPa 0,0 l/m 0 min 0 min 0 W/m 18,8 km/h (3 Bft)
28.11.2014 22:10 4,3 C 2,8 C 91 % 1012,0 hPa 0,0 l/m 0 min 0 min 0 W/m 29,3 km/h (5 Bft)
28.11.2014 22:12 4,3 C 2,8 C 91 % 1012,1 hPa 0,0 l/m 0 min 0 min 0 W/m 18,8 km/h (3 Bft)
28.11.2014 22:14 4,3 C 2,8 C 91 % 1012,1 hPa 0,0 l/m 0 min 0 min 0 W/m 20,9 km/h (4 Bft)
28.11.2014 22:16 4,2 C 2,8 C 91 % 1012,2 hPa 0,0 l/m 0 min 0 min 0 W/m 20,9 km/h (4 Bft)
28.11.2014 22:18 4,2 C 2,8 C 91 % 1012,2 hPa 0,0 l/m 0 min 0 min 0 W/m 20,9 km/h (4 Bft)
28.11.2014 22:20 4,2 C 2,8 C 91 % 1012,1 hPa 0,0 l/m 0 min 0 min 0 W/m 20,9 km/h (4 Bft)
28.11.2014 22:22 4,2 C 2,8 C 91 % 1012,1 hPa 0,0 l/m 0 min 0 min 0 W/m 18,8 km/h (3 Bft)
28.11.2014 22:24 4,2 C 2,8 C 91 % 1012,1 hPa 0,0 l/m 0 min 0 min 0 W/m 16,7 km/h (3 Bft)
28.11.2014 22:26 4,2 C 2,8 C 91 % 1012,1 hPa 0,0 l/m 0 min 0 min 0 W/m 23,0 km/h (4 Bft)
28.11.2014 22:28 4,2 C 2,8 C 91 % 1012,1 hPa 0,0 l/m 0 min 0 min 0 W/m 27,2 km/h (4 Bft)
28.11.2014 22:30 4,2 C 2,8 C 91 % 1012,1 hPa 0,0 l/m 0 min 0 min 0 W/m 31,4 km/h (5 Bft)
28.11.2014 22:32 4,2 C 2,8 C 91 % 1012,1 hPa 0,0 l/m 0 min 0 min 0 W/m 23,0 km/h (4 Bft)
28.11.2014 22:34 4,2 C 2,8 C 91 % 1012,0 hPa 0,0 l/m 0 min 0 min 0 W/m 27,2 km/h (4 Bft)
28.11.2014 22:36 4,2 C 2,8 C 91 % 1012,0 hPa 0,0 l/m 0 min 0 min 0 W/m 20,9 km/h (4 Bft)
28.11.2014 22:38 4,2 C 2,8 C 91 % 1012,0 hPa 0,0 l/m 0 min 0 min 0 W/m 25,1 km/h (4 Bft)
28.11.2014 22:40 4,2 C 2,8 C 91 % 1012,0 hPa 0,0 l/m 0 min 0 min 0 W/m 27,2 km/h (4 Bft)
28.11.2014 22:42 4,2 C 2,8 C 91 % 1012,1 hPa 0,0 l/m 0 min 0 min 0 W/m 23,0 km/h (4 Bft)
28.11.2014 22:44 4,2 C 2,8 C 91 % 1012,1 hPa 0,0 l/m 0 min 0 min 0 W/m 27,2 km/h (4 Bft)
28.11.2014 22:46 4,2 C 2,8 C 91 % 1012,1 hPa 0,0 l/m 0 min 0 min 0 W/m 23,0 km/h (4 Bft)
28.11.2014 22:48 4,2 C 3,3 C 91 % 1012,1 hPa 0,0 l/m 0 min 0 min 0 W/m 27,2 km/h (4 Bft)
28.11.2014 22:50 4,2 C 3,3 C 91 % 1012,2 hPa 0,0 l/m 0 min 0 min 0 W/m 25,1 km/h (4 Bft)
28.11.2014 22:52 4,2 C 3,3 C 91 % 1012,2 hPa 0,0 l/m 0 min 0 min 0 W/m 27,2 km/h (4 Bft)
28.11.2014 22:54 4,2 C 3,3 C 91 % 1012,2 hPa 0,0 l/m 0 min 0 min 0 W/m 23,0 km/h (4 Bft)
28.11.2014 22:56 4,2 C 3,3 C 91 % 1012,2 hPa 0,0 l/m 0 min 0 min 0 W/m 18,8 km/h (3 Bft)
28.11.2014 22:58 4,2 C 3,3 C 91 % 1012,2 hPa 0,0 l/m 0 min 0 min 0 W/m 20,9 km/h (4 Bft)
28.11.2014 23:00 4,2 C 3,3 C 91 % 1012,2 hPa 0,0 l/m 0 min 0 min 0 W/m 20,9 km/h (4 Bft)
28.11.2014 23:02 4,2 C 3,3 C 91 % 1012,3 hPa 0,0 l/m 0 min 0 min 0 W/m 18,8 km/h (3 Bft)
28.11.2014 23:04 4,2 C 3,3 C 91 % 1012,3 hPa 0,0 l/m 0 min 0 min 0 W/m 29,3 km/h (5 Bft)
28.11.2014 23:06 4,2 C 3,3 C 91 % 1012,3 hPa 0,0 l/m 0 min 0 min 0 W/m 23,0 km/h (4 Bft)
28.11.2014 23:08 4,2 C 3,3 C 92 % 1012,3 hPa 0,0 l/m 0 min 0 min 0 W/m 23,0 km/h (4 Bft)
28.11.2014 23:10 4,2 C 3,3 C 92 % 1012,3 hPa 0,0 l/m 0 min 0 min 0 W/m 25,1 km/h (4 Bft)
28.11.2014 23:12 4,2 C 3,3 C 92 % 1012,3 hPa 0,0 l/m 0 min 0 min 0 W/m 20,9 km/h (4 Bft)
28.11.2014 23:14 4,2 C 3,3 C 91 % 1012,2 hPa 0,0 l/m 0 min 0 min 0 W/m 23,0 km/h (4 Bft)
28.11.2014 23:16 4,2 C 3,3 C 91 % 1012,3 hPa 0,0 l/m 0 min 0 min 0 W/m 23,0 km/h (4 Bft)
28.11.2014 23:18 4,2 C 3,3 C 91 % 1012,3 hPa 0,0 l/m 0 min 0 min 0 W/m 23,0 km/h (4 Bft)
28.11.2014 23:20 4,2 C 3,3 C 91 % 1012,3 hPa 0,0 l/m 0 min 0 min 0 W/m 20,9 km/h (4 Bft)
28.11.2014 23:22 4,2 C 3,3 C 91 % 1012,4 hPa 0,0 l/m 0 min 0 min 0 W/m 20,9 km/h (4 Bft)
28.11.2014 23:24 4,2 C 3,3 C 91 % 1012,4 hPa 0,0 l/m 0 min 0 min 0 W/m 20,9 km/h (4 Bft)
28.11.2014 23:26 4,2 C 3,3 C 91 % 1012,5 hPa 0,0 l/m 0 min 0 min 0 W/m 20,9 km/h (4 Bft)
28.11.2014 23:28 4,3 C 3,3 C 91 % 1012,5 hPa 0,0 l/m 0 min 0 min 0 W/m 20,9 km/h (4 Bft)
28.11.2014 23:30 4,2 C 3,3 C 91 % 1012,5 hPa 0,0 l/m 0 min 0 min 0 W/m 18,8 km/h (3 Bft)
28.11.2014 23:32 4,2 C 3,3 C 91 % 1012,6 hPa 0,0 l/m 0 min 0 min 0 W/m 16,7 km/h (3 Bft)
28.11.2014 23:34 4,3 C 3,3 C 91 % 1012,6 hPa 0,0 l/m 0 min 0 min 0 W/m 16,7 km/h (3 Bft)
28.11.2014 23:36 4,3 C 3,3 C 91 % 1012,7 hPa 0,0 l/m 0 min 0 min 0 W/m 23,0 km/h (4 Bft)
28.11.2014 23:38 4,3 C 3,3 C 91 % 1012,6 hPa 0,0 l/m 0 min 0 min 0 W/m 18,8 km/h (3 Bft)
28.11.2014 23:40 4,3 C 3,3 C 91 % 1012,6 hPa 0,0 l/m 0 min 0 min 0 W/m 16,7 km/h (3 Bft)
28.11.2014 23:42 4,3 C 3,3 C 91 % 1012,6 hPa 0,0 l/m 0 min 0 min 0 W/m 18,8 km/h (3 Bft)
28.11.2014 23:44 4,3 C 3,3 C 91 % 1012,6 hPa 0,0 l/m 0 min 0 min 0 W/m 18,8 km/h (3 Bft)
28.11.2014 23:46 4,3 C 3,3 C 91 % 1012,6 hPa 0,0 l/m 0 min 0 min 0 W/m 12,6 km/h (3 Bft)
28.11.2014 23:48 4,3 C 3,3 C 91 % 1012,7 hPa 0,0 l/m 0 min 0 min 0 W/m 10,5 km/h (2 Bft)
28.11.2014 23:50 4,3 C 3,3 C 91 % 1012,7 hPa 0,0 l/m 0 min 0 min 0 W/m 18,8 km/h (3 Bft)
28.11.2014 23:52 4,3 C 3,3 C 91 % 1012,7 hPa 0,0 l/m 0 min 0 min 0 W/m 14,6 km/h (3 Bft)
28.11.2014 23:54 4,3 C 3,3 C 91 % 1012,7 hPa 0,0 l/m 0 min 0 min 0 W/m 14,6 km/h (3 Bft)
28.11.2014 23:56 4,3 C 3,3 C 91 % 1012,7 hPa 0,0 l/m 0 min 0 min 0 W/m 16,7 km/h (3 Bft)
28.11.2014 23:58 4,3 C 3,3 C 91 % 1012,7 hPa 0,0 l/m 0 min 0 min 0 W/m 16,7 km/h (3 Bft)
_ Min-Zeit 22:44 21:38 13:00 00:00 - - - - 17:24
Minimum _ 4,1 C 2,8 C 82 % 1006,9 hPa - - - - 6,3 km/h (2 Bft)
_ Max-Zeit 12:52 12:42 00:00 23:36 00:00 11:42 08:30 12:05 05:52
Maximum _ 9,1 C 7,8 C 94 % 1012,7 hPa 0,0 l/m 2 min 2 min 308 W/m 46,0 km/h
O-SO (6 Bft)
Durchschnitt _ 6,2 C 4,8 C 90 % 1009,0 hPa #0,0 l/m #53 min. #22 min. 77 W/m 23,7 km/h (4 Bft)
© 2015 W. Hausmann